GFSNE_prec_cthk_000.txt.gz
RH
32 36 41 47 48 39 39 38 36 33 31 28 28 56 84 96 98 98 96 91 76 64 56 50 46 44 44 52 55 56 53 52 53 47 47 46 46 44
35 37 40 46 52 42 39 42 42 41 37 34 30 34 53 87 99 99 98 98 93 83 71 62 53 48 46 44 46 53 59 60 57 52 49 53 53 48
34 37 40 42 51 53 43 43 45 43 42 39 37 33 31 69 88 99 98 98 98 96 90 75 64 54 47 43 50 53 62 64 64 61 56 59 58 50
32 34 36 38 44 46 45 41 42 42 41 42 48 39 33 36 48 79 97 97 98 98 98 93 82 71 56 49 50 59 69 63 65 66 67 68 63 55
37 40 40 44 47 44 44 41 41 41 42 36 45 47 40 34 37 49 79 96 97 98 98 99 92 87 75 63 64 69 76 77 76 78 77 77 80 74
46 48 48 51 52 53 54 51 47 46 48 46 40 49 43 43 36 42 59 83 97 98 98 98 98 94 91 87 82 83 85 89 85 84 89 97 88 86
68 71 72 71 72 71 65 59 53 51 51 53 52 44 50 43 33 38 49 70 90 97 98 98 98 98 97 98 98 98 97 96 95 96 98 96 96 95
86 89 91 92 90 89 85 76 65 59 51 51 52 50 48 47 42 35 45 51 76 93 98 99 99 98 99 98 98 99 99 98 98 98 97 97 94 83
88 90 91 91 92 92 95 96 92 72 59 48 52 56 47 58 48 40 38 45 57 76 89 99 99 98 98 98 99 99 98 98 98 99 98 95 82 71
90 94 96 95 96 97 95 93 95 92 75 55 42 43 52 53 64 53 40 42 47 68 85 99 97 99 98 99 99 98 99 98 98 98 98 92 84 76
94 98 98 98 97 98 96 93 91 76 83 72 53 42 47 55 61 73 54 41 53 53 70 90 96 98 98 98 98 98 98 98 98 98 96 86 81 73
97 97 98 97 98 98 96 96 90 71 80 80 71 58 45 45 49 54 69 50 46 53 54 73 93 98 98 97 94 97 98 98 98 95 87 82 74 72
97 98 97 98 98 98 98 97 91 72 77 72 70 66 51 47 50 53 60 54 44 44 51 62 76 88 92 97 95 98 98 97 98 98 92 80 78 74
98 98 98 98 98 97 97 98 96 82 71 64 62 60 54 46 37 51 61 56 45 48 52 58 73 82 86 89 94 96 97 98 98 96 91 89 88 80
97 96 94 95 96 96 98 96 98 92 70 64 67 61 54 51 42 47 42 57 59 60 54 58 73 86 88 87 94 98 97 97 97 97 96 83 86 86
96 95 96 97 95 92 88 91 95 97 79 62 63 70 68 55 46 42 36 50 69 75 57 61 65 75 81 86 83 88 98 97 97 97 92 88 91 77
95 97 97 98 91 87 87 93 92 94 89 68 61 55 53 49 45 53 44 41 52 54 57 67 72 70 90 91 86 84 92 90 87 84 85 83 74 72
95 94 94 96 98 94 96 97 96 91 92 85 63 52 51 50 52 51 56 55 44 48 56 57 64 67 77 87 88 89 86 85 84 76 75 76 75 64
98 98 97 95 96 98 98 97 96 96 92 93 88 82 62 54 53 52 51 52 45 53 69 67 68 74 80 78 84 89 89 85 77 77 71 64 62 57
97 98 98 98 98 98 97 98 98 98 98 98 94 92 91 74 61 55 52 51 62 79 84 70 72 73 74 84 89 85 80 73 62 64 63 61 60 59
95 94 93 92 95 97 98 98 98 98 98 98 96 94 93 94 83 82 81 66 87 85 79 72 72 78 84 91 85 75 69 60 66 68 68 67 65 61
98 98 97 97 97 93 89 94 98 98 98 98 97 98 95 96 97 98 95 93 98 89 84 86 83 84 82 77 73 70 69 70 69 64 60 62 68 64
98 98 98 98 95 95 98 96 89 84 89 95 96 88 86 90 97 97 97 98 98 91 86 84 78 74 72 71 72 77 76 72 69 69 67 65 63 62

GFSNE_prec_cthk_003.txt.gz
RH
38 37 36 32 31 33 37 44 45 43 36 28 29 30 28 29 42 63 66 73 85 99 96 79 68 59 54 68 64 59 42 31 28 27 29 33 39 43
37 36 35 34 36 37 38 43 49 46 39 34 30 31 37 32 33 47 74 73 84 99 99 94 80 72 57 68 79 73 68 56 46 38 33 31 39 46
38 37 33 34 36 44 52 59 71 70 55 34 37 34 38 40 36 36 67 87 83 96 99 99 91 80 68 62 77 80 86 75 64 54 47 41 45 47
34 34 35 37 37 34 41 57 65 75 74 55 42 39 45 46 42 40 36 50 75 93 98 99 95 88 75 67 68 80 82 94 83 69 64 55 57 55
37 41 42 45 46 46 49 55 62 69 64 63 47 41 43 48 51 48 43 32 48 80 96 98 98 96 88 79 67 70 80 84 76 75 74 73 71 68
46 48 47 50 52 56 59 56 59 68 69 66 55 48 44 41 47 49 48 41 29 55 77 96 98 98 98 94 83 70 74 76 78 70 73 80 77 72
50 56 61 67 72 73 74 72 68 64 67 69 64 60 61 57 56 51 61 52 31 40 57 79 97 98 98 98 98 87 77 74 73 72 78 80 78 80
68 74 81 85 85 87 87 86 84 82 76 78 77 70 62 55 67 62 69 62 43 32 48 62 83 98 98 99 97 98 88 85 82 79 85 84 89 87
83 86 87 90 90 89 92 91 90 91 91 89 82 73 73 62 61 69 70 71 53 36 41 56 79 94 98 98 99 98 96 92 95 96 98 96 98 96
85 86 86 89 93 96 97 95 93 91 90 93 90 87 77 63 74 80 81 84 74 49 40 53 82 89 95 98 99 99 98 98 99 99 99 98 99 98
88 93 96 96 97 98 97 95 95 94 96 95 93 89 89 82 62 66 66 82 81 62 45 46 66 92 98 98 99 99 99 99 99 98 98 98 99 98
96 96 96 97 97 98 97 97 97 97 97 97 95 87 86 85 80 66 71 76 74 71 51 46 56 84 97 96 97 97 98 99 98 98 98 98 98 98
97 98 98 97 96 97 97 97 97 96 97 99 95 89 78 77 81 68 59 76 67 75 57 47 49 58 76 89 95 97 98 98 98 98 98 98 98 98
97 97 98 98 98 97 97 96 96 97 98 98 98 90 72 76 75 66 56 65 60 66 64 49 50 53 72 96 97 97 97 97 98 98 98 98 98 96
98 98 98 98 98 97 97 98 98 98 98 98 98 87 76 77 80 76 63 55 49 54 62 59 48 49 69 80 89 96 98 97 97 97 97 97 97 96
96 98 98 98 98 96 89 85 90 91 96 98 97 93 84 76 71 74 59 51 52 55 58 61 57 53 62 74 91 96 97 96 96 97 97 97 97 97
98 98 98 98 98 93 93 92 85 81 82 96 98 94 85 77 72 68 63 56 55 63 51 59 73 65 57 68 81 94 97 96 93 96 97 97 97 97
98 98 97 93 94 95 93 93 85 84 83 96 96 82 77 80 74 66 63 55 51 53 48 65 74 77 62 61 76 89 96 97 95 96 97 96 96 95
98 98 96 94 94 93 94 93 90 91 94 96 85 68 65 73 71 71 65 56 56 51 56 78 79 69 70 72 69 82 94 97 98 98 97 96 94 94
96 94 94 94 91 89 88 93 97 98 98 98 96 79 67 60 59 61 60 62 62 59 54 50 53 57 65 72 69 69 87 89 89 91 90 86 86 88
96 96 96 95 93 94 91 91 96 98 98 98 98 96 85 66 59 62 63 65 65 68 63 57 49 56 61 61 66 70 80 93 96 95 94 88 82 73
97 97 97 96 96 93 92 92 95 97 97 98 98 96 95 96 77 65 66 70 66 66 58 59 57 66 69 68 72 75 83 84 87 86 81 71 68 67
98 98 98 98 97 97 98 97 97 98 98 98 92 94 97 98 95 89 77 66 71 74 76 80 84 77 71 71 72 76 77 74 64 65 68 73 76 74

GFSNE_prec_cthk_006.txt.gz
RH
52 49 45 44 46 48 44 44 46 46 43 45 43 38 36 36 38 33 30 37 54 67 69 76 73 89 99 94 88 78 54 43 37 39 36 37 34 32
45 42 40 39 38 38 40 41 44 50 51 39 39 43 39 32 33 41 38 31 29 44 64 71 78 80 92 98 95 86 62 53 45 41 35 34 33 33
38 36 34 32 31 30 29 30 36 40 47 35 39 40 41 37 29 33 39 41 32 33 47 62 69 83 83 95 98 93 82 61 60 50 35 35 34 31
35 32 30 29 30 30 29 26 28 30 41 36 40 44 48 47 37 30 34 40 42 35 38 65 66 75 82 90 98 97 92 76 71 64 51 39 38 35
31 32 32 32 32 31 30 32 35 38 42 47 38 45 47 52 49 36 32 39 42 42 36 47 60 74 75 91 97 98 99 90 82 91 73 63 52 45
37 37 37 38 41 44 45 42 43 43 44 51 48 46 52 49 51 43 36 33 35 43 40 35 36 47 70 86 97 97 99 98 88 83 96 94 77 68
38 40 44 53 61 64 65 60 62 60 58 56 54 50 54 54 49 42 45 41 38 32 37 39 32 49 60 69 93 98 98 99 95 91 90 99 96 97
50 61 71 79 82 84 84 82 80 77 75 77 70 62 63 71 67 61 57 50 51 51 52 52 44 43 52 68 82 97 98 99 97 92 95 99 95 96
74 81 85 88 90 89 89 90 89 86 86 89 82 77 73 71 80 88 78 68 64 66 66 56 50 44 51 52 77 91 95 98 98 97 95 96 99 97
84 86 87 87 89 90 89 86 85 88 88 89 88 87 82 84 85 92 95 83 68 70 75 68 58 45 50 52 72 88 90 98 97 99 97 96 98 97
89 91 94 93 94 96 96 94 94 93 96 93 91 91 90 90 91 94 90 96 77 77 89 82 67 45 56 48 75 87 94 98 98 98 98 98 98 99
91 92 95 96 97 98 96 94 90 92 96 95 94 94 95 95 96 96 95 91 91 69 84 91 72 54 59 59 78 91 96 97 97 98 99 98 98 99
93 95 97 98 98 98 98 96 93 95 96 96 94 94 96 96 95 93 94 91 91 74 72 79 70 63 57 56 75 94 96 98 98 98 98 99 99 98
97 98 97 98 98 97 95 92 95 96 96 97 97 96 95 97 94 93 95 92 85 93 66 87 82 71 57 58 64 91 97 97 98 98 98 99 98 99
98 96 98 98 96 96 95 95 98 98 96 94 95 96 95 95 98 98 95 86 86 93 91 94 88 73 61 58 51 73 91 97 98 98 98 98 97 98
95 97 98 98 97 96 97 97 92 87 91 82 82 92 96 98 98 97 83 84 91 94 96 85 74 65 67 59 55 68 95 96 97 98 98 97 98 98
97 97 98 98 96 95 97 95 91 81 78 75 80 91 97 98 98 98 90 90 92 84 76 81 70 64 68 67 65 69 77 96 97 97 96 97 97 98
97 96 95 95 97 95 94 94 86 74 74 81 84 98 99 99 93 88 87 90 91 78 71 59 49 62 68 81 68 71 74 90 95 97 96 97 97 97
97 95 93 92 89 95 93 88 87 89 93 91 80 90 94 89 88 86 82 84 87 83 74 65 76 77 78 87 83 71 69 82 95 98 97 96 97 97
96 96 92 91 90 89 89 87 93 96 96 98 98 76 73 75 82 85 83 80 78 79 73 69 79 77 80 88 91 84 75 70 84 97 97 97 97 97
96 94 95 90 88 87 88 88 94 95 94 96 98 97 74 65 63 67 74 78 78 72 68 65 61 64 82 87 88 85 81 78 76 90 97 97 97 97
96 96 95 93 90 89 90 88 90 90 91 93 97 98 98 88 65 63 68 68 71 67 70 71 71 74 79 73 61 74 84 84 78 77 88 97 97 96
97 96 96 96 93 91 91 92 90 89 90 94 97 98 98 98 97 83 68 71 70 70 71 75 74 73 71 61 62 72 79 79 77 77 79 84 95 93

GFSNE_prec_cthk_009.txt.gz
RH
63 60 57 56 54 51 50 53 55 54 51 49 55 50 43 53 51 42 36 34 36 41 42 53 57 75 67 75 96 97 94 97 88 73 49 41 40 38
59 54 51 47 46 48 48 50 54 57 54 53 53 58 64 58 52 52 45 36 31 32 35 43 47 56 61 65 84 97 98 94 96 87 70 49 42 43
50 46 43 42 42 41 43 42 42 43 44 42 42 45 47 50 51 51 50 43 38 33 36 38 49 54 56 62 71 92 99 98 97 94 90 65 45 43
40 37 32 28 26 25 26 27 29 32 35 35 40 39 41 43 44 44 48 51 46 41 35 37 41 46 40 44 63 70 95 98 97 98 96 85 58 44
28 29 29 30 29 27 27 28 29 29 28 28 32 34 36 36 35 34 39 47 45 43 38 34 31 37 33 34 50 71 80 87 93 99 94 92 85 53
34 37 38 38 38 37 36 34 35 38 39 36 31 31 34 34 40 39 38 42 41 42 40 31 28 28 33 31 29 45 77 85 85 94 96 98 96 78
35 37 39 41 43 48 53 52 57 56 55 50 38 39 36 36 39 46 48 47 47 42 36 32 26 24 29 30 27 29 40 71 81 94 93 96 98 96
42 46 53 61 66 71 75 77 79 77 71 64 52 50 47 44 45 47 53 57 49 45 43 33 30 28 30 34 30 27 28 45 70 90 98 98 95 98
66 70 74 77 80 81 82 82 82 86 87 86 72 67 66 63 60 50 48 59 52 46 47 40 33 31 33 33 31 28 22 42 62 79 94 94 92 98
79 81 82 83 84 86 87 86 85 85 84 81 75 75 76 80 78 73 64 57 60 58 59 50 41 40 44 45 37 29 27 42 52 72 90 97 98 98
84 87 87 88 86 88 88 87 85 86 90 88 84 79 83 83 87 88 81 74 60 63 69 69 58 53 65 58 46 31 31 33 45 44 80 92 98 97
89 90 91 91 92 95 96 95 91 91 91 90 88 88 91 93 92 89 92 84 78 69 71 80 73 69 82 71 53 33 36 37 39 46 75 88 97 98
90 92 96 97 94 90 95 96 95 96 94 95 93 90 89 90 93 94 94 93 86 81 78 86 84 82 92 76 62 45 49 48 48 59 77 90 97 99
95 95 97 97 94 94 96 94 92 91 89 91 94 96 97 97 96 94 94 92 90 89 95 86 89 86 89 84 71 48 53 63 62 75 86 92 98 98
98 98 98 98 97 97 96 94 96 98 97 95 94 91 91 95 97 97 95 95 96 96 98 91 92 93 83 92 82 62 62 82 80 85 93 93 98 98
98 98 96 96 96 97 96 97 98 98 98 96 90 80 84 84 84 94 98 98 99 97 99 95 92 88 96 88 85 68 62 79 82 87 97 99 97 98
96 93 91 90 91 98 99 96 96 93 77 75 76 81 84 89 90 93 98 99 98 97 99 96 90 93 98 89 81 68 62 68 74 83 95 97 96 98
96 93 88 88 88 92 98 98 93 85 80 81 76 77 85 97 98 97 98 99 98 95 93 90 89 98 98 85 73 76 69 72 81 94 97 97 97 98
96 95 87 85 87 87 88 90 88 84 84 84 81 77 92 97 98 97 98 98 97 98 92 86 94 95 87 77 67 83 81 73 71 89 98 97 98 98
97 95 91 88 83 83 81 79 81 83 85 90 92 71 77 84 88 90 91 87 82 84 84 86 87 77 70 76 82 93 87 78 77 87 97 97 97 98
97 96 94 91 88 82 81 79 80 84 91 95 97 97 74 64 71 77 77 75 73 75 83 82 77 73 69 85 83 96 95 88 86 98 96 98 97 97
98 98 95 93 91 89 84 84 84 88 95 96 96 96 97 88 63 58 61 68 75 75 79 84 81 73 74 82 85 96 95 94 91 85 90 92 97 97
98 97 98 96 94 91 91 92 91 90 91 93 96 98 97 96 95 73 68 67 70 71 71 69 68 67 71 75 81 89 87 90 96 98 91 86 92 97

GFSNE_prec_cthk_012.txt.gz
RH
83 78 75 71 66 63 60 57 54 55 53 53 57 62 63 63 57 51 53 47 42 43 52 59 59 57 57 66 85 96 97 99 98 98 86 89 65 42
78 74 69 64 58 54 53 52 53 52 50 51 51 54 57 56 56 57 54 52 52 47 45 43 46 48 46 50 55 85 98 98 98 98 98 96 90 58
69 63 55 49 48 46 44 43 42 43 42 44 45 48 52 57 57 56 57 52 51 48 45 45 45 42 43 46 45 50 72 90 97 98 98 98 97 88
47 42 39 37 36 33 32 31 31 30 32 35 37 38 41 49 56 60 56 57 50 43 46 41 41 42 37 35 36 37 44 68 84 97 98 98 98 94
31 27 26 28 28 30 32 33 32 31 30 33 34 36 35 36 42 49 55 56 55 55 45 43 39 38 34 32 31 28 31 39 55 75 96 96 99 99
29 32 34 35 35 36 37 37 37 35 31 32 31 34 37 36 36 37 40 45 49 49 55 55 49 43 38 32 27 25 31 35 38 39 74 90 97 99
31 31 32 35 38 40 42 39 42 40 36 35 33 37 36 39 40 37 35 35 38 46 51 51 56 48 41 35 30 27 23 26 41 37 37 74 94 96
32 37 44 53 60 63 64 65 65 63 61 61 58 56 52 52 50 48 43 40 36 36 44 48 54 55 48 44 36 31 29 27 27 32 27 30 81 93
47 61 68 73 75 76 76 75 76 75 76 77 76 76 73 69 65 58 55 49 39 33 43 46 48 47 48 46 44 37 33 34 29 26 25 20 46 82
70 76 79 80 82 84 83 82 81 77 79 79 78 81 85 88 84 76 68 61 52 43 39 42 43 40 36 35 36 36 36 35 34 29 25 21 28 51
84 87 87 87 88 91 87 83 83 82 85 84 84 86 88 86 85 84 78 75 64 59 55 43 40 40 35 28 29 28 34 39 36 31 26 26 25 39
87 88 91 92 93 97 99 97 92 91 93 92 91 88 91 95 93 84 82 80 80 75 69 62 55 52 44 32 33 36 36 34 36 32 34 26 26 33
89 89 93 95 96 97 97 93 91 95 95 96 96 95 94 95 96 95 91 84 84 81 83 77 71 67 58 53 48 48 45 40 36 35 37 33 29 29
92 95 94 94 95 97 98 98 96 96 97 97 96 95 93 93 92 94 92 92 92 86 84 85 78 79 78 68 59 55 53 50 41 32 37 35 37 35
96 95 92 90 90 92 96 96 95 96 98 98 97 96 94 93 95 96 95 93 90 91 90 83 82 83 80 72 66 62 56 52 51 48 48 46 45 46
94 94 89 87 88 90 96 97 97 98 98 98 97 96 92 89 88 87 87 88 86 87 88 90 87 90 88 85 79 70 62 62 60 56 75 61 57 56
94 93 86 83 82 85 91 97 98 96 88 87 88 87 84 83 82 83 84 85 85 85 92 91 95 97 97 93 89 79 69 66 70 68 94 82 77 67
95 93 88 83 78 80 82 85 82 79 77 75 71 66 63 70 76 84 90 93 93 89 94 98 98 98 99 97 91 87 75 70 76 82 96 98 90 80
97 95 90 83 80 80 79 81 82 82 84 82 80 64 74 91 92 97 98 98 98 96 98 98 99 99 98 97 94 84 76 74 80 84 98 98 98 93
97 97 94 88 81 81 82 80 83 88 89 88 89 85 65 74 90 94 97 97 98 99 99 99 99 98 98 95 87 80 75 79 83 78 97 98 98 98
98 98 97 94 89 84 81 80 82 85 89 92 94 93 85 63 70 78 82 85 90 93 96 99 97 99 99 95 91 81 81 85 85 84 86 97 97 98
98 98 98 97 94 93 89 86 84 84 85 89 91 92 91 85 66 62 62 71 77 78 85 89 90 89 91 96 90 85 87 96 97 80 87 92 97 97
98 98 98 97 96 94 92 89 88 87 86 86 87 88 88 89 84 71 68 66 70 76 74 79 88 84 83 82 79 88 85 94 98 85 95 96 98 98

GFSNE_prec_cthk_015.txt.gz
RH
93 90 87 83 79 77 75 72 70 60 56 54 52 50 48 46 44 43 45 68 70 68 59 53 74 84 92 90 85 73 85 91 96 96 98 95 99 78
89 88 84 81 79 76 72 69 66 61 54 53 50 48 48 48 48 49 43 55 69 76 69 56 58 74 80 84 83 69 66 79 96 97 98 99 98 94
74 71 66 63 59 56 53 51 49 49 48 45 46 44 44 45 46 44 46 46 58 68 73 66 54 58 67 73 76 74 65 56 78 96 97 98 98 98
57 51 47 43 40 38 37 38 38 37 39 38 39 41 38 38 40 44 46 49 54 60 65 67 60 49 50 60 67 62 61 57 59 78 92 95 97 98
44 38 33 31 29 27 28 30 31 31 33 35 36 38 38 33 31 32 38 41 44 50 54 60 59 52 44 48 55 52 40 40 43 57 72 84 96 95
30 26 27 28 28 29 29 28 29 30 30 33 31 34 35 35 32 28 27 31 36 41 49 51 58 60 52 43 44 42 40 34 33 34 52 64 74 89
26 26 27 28 30 35 39 39 43 45 46 46 44 41 40 40 39 36 32 27 28 32 37 47 50 55 63 61 48 45 42 37 33 30 29 33 47 67
24 27 30 36 41 48 56 63 68 70 69 68 63 57 53 52 50 49 45 41 34 32 33 34 44 49 55 64 66 53 43 40 36 32 29 25 24 35
32 36 41 51 64 69 72 74 75 77 80 81 80 79 76 76 71 63 62 56 47 44 45 39 37 41 48 59 64 64 57 45 39 37 33 28 24 23
42 56 70 76 80 81 82 82 82 84 87 86 85 85 81 80 80 79 73 67 59 54 52 42 33 31 37 50 58 62 62 58 49 39 37 34 28 24
72 82 84 85 88 91 92 91 90 91 96 90 86 84 84 86 84 82 81 81 72 65 64 52 43 37 37 38 46 49 54 54 53 50 43 35 32 29
86 87 90 91 93 96 97 95 93 94 98 98 97 95 91 89 91 90 89 83 78 74 76 67 60 56 44 30 34 42 44 48 52 51 48 44 37 31
89 91 93 94 95 95 96 96 97 98 98 98 96 94 93 97 97 96 95 91 87 78 81 80 73 65 57 51 44 37 37 43 47 48 46 41 41 38
93 93 93 91 90 90 90 94 97 97 98 98 99 98 97 97 97 96 96 95 94 93 89 82 80 78 71 67 59 51 44 44 45 44 43 40 38 40
96 96 94 92 86 85 91 97 98 98 97 98 98 99 98 98 98 97 96 97 96 96 94 90 83 83 80 74 73 71 66 55 50 46 40 38 39 38
98 97 95 88 82 81 84 89 94 96 94 90 91 91 93 94 96 97 98 98 98 94 93 93 94 90 83 78 78 73 74 68 57 52 44 40 37 38
98 98 93 85 79 79 81 82 81 76 73 72 72 73 73 75 80 91 92 93 94 93 95 94 91 89 91 90 81 83 84 74 66 60 53 46 40 38
98 98 93 86 81 76 77 80 80 82 85 82 77 76 68 63 68 71 77 91 94 91 90 89 87 87 88 90 93 94 93 87 78 67 63 51 50 49
98 98 97 89 84 81 77 79 81 84 86 86 87 86 76 69 80 86 89 94 94 99 95 93 90 86 88 95 98 98 99 94 77 72 66 54 57 59
98 98 99 97 89 83 80 79 80 81 84 87 89 88 87 66 73 87 96 97 96 96 94 97 95 91 90 98 98 98 97 91 80 73 63 57 61 76
98 98 99 99 97 91 87 85 83 83 84 85 85 86 86 76 65 69 78 83 91 95 97 98 98 95 97 98 97 97 96 87 78 73 65 66 66 85
98 98 98 99 99 95 91 88 85 84 83 83 84 82 82 81 69 60 59 64 76 79 87 95 97 98 98 98 97 98 96 89 78 77 72 68 77 90
98 98 98 98 99 98 96 93 90 88 87 86 83 82 80 80 80 74 63 63 66 73 75 81 93 97 98 98 98 98 97 90 83 80 77 79 81 90

GFSNE_prec_cthk_018.txt.gz
RH
97 93 96 97 97 96 94 92 88 73 63 60 57 56 55 53 52 51 51 51 47 41 46 54 61 65 68 60 54 85 95 94 94 98 97 98 98 94
90 93 90 87 85 81 79 75 73 69 61 55 53 52 52 51 51 50 48 47 46 42 40 50 57 62 69 77 59 62 78 87 89 89 97 97 99 98
84 79 73 69 62 58 56 53 51 52 51 44 44 43 42 44 45 45 45 43 41 41 38 38 52 58 65 77 73 62 70 81 88 86 91 95 97 98
76 70 61 54 48 47 45 44 43 42 42 39 36 36 33 33 37 39 39 43 41 39 39 37 38 54 67 72 77 70 68 75 81 87 79 89 96 94
61 54 50 46 42 39 36 34 33 31 31 32 28 28 29 25 25 26 26 30 35 36 37 36 35 37 54 74 75 77 60 70 76 80 86 75 84 96
46 42 38 34 31 28 25 23 24 27 30 35 34 32 34 32 31 29 25 23 23 28 33 36 36 36 39 53 71 75 67 63 68 72 77 73 69 82
35 30 25 23 24 26 31 34 39 41 44 47 46 42 43 46 43 40 36 31 27 26 27 31 34 36 38 44 56 67 73 64 53 60 63 67 61 65
26 23 23 27 32 38 42 48 51 58 64 70 70 69 68 67 64 58 52 47 36 34 32 25 29 33 37 42 48 60 75 74 55 53 53 53 57 49
25 27 32 40 48 57 64 72 77 80 79 78 75 76 76 80 79 74 67 62 53 48 46 37 35 35 38 42 46 52 66 73 71 58 47 42 48 46
31 39 49 60 73 79 82 82 83 86 91 91 87 82 79 82 84 82 79 76 69 64 62 50 49 39 37 36 41 47 56 67 71 72 63 45 43 44
42 59 72 81 85 88 89 89 90 92 95 96 94 92 91 87 87 86 83 81 77 74 70 62 56 52 45 36 37 41 49 59 64 66 68 65 49 44
64 82 88 90 91 93 92 94 93 95 98 97 96 97 95 93 94 88 87 86 86 80 81 76 72 66 54 43 35 37 47 50 56 58 63 63 65 58
86 93 95 95 94 92 92 92 92 95 96 97 97 97 96 91 88 86 90 93 89 86 89 83 81 78 68 60 48 43 46 47 49 49 54 59 61 58
96 97 97 97 93 85 86 88 94 96 97 98 97 96 95 93 92 95 98 97 97 95 93 92 88 82 78 72 65 56 50 47 45 44 51 56 57 54
99 98 97 96 88 84 84 85 87 93 96 97 95 92 95 97 98 99 99 98 99 98 98 99 98 96 86 81 77 74 70 59 46 41 44 43 44 44
98 98 97 96 87 81 81 81 82 85 83 79 78 78 77 80 84 91 97 98 98 98 98 98 98 98 97 90 86 85 82 74 62 53 48 45 40 36
98 98 98 93 82 79 80 81 83 85 86 86 86 81 78 71 66 64 73 84 97 97 97 98 98 98 98 99 94 88 87 84 80 73 62 54 47 42
98 98 98 95 87 84 82 81 84 84 85 84 83 81 80 71 58 64 75 75 79 93 98 98 99 99 98 97 96 96 94 90 90 88 80 68 57 51
98 98 98 98 93 87 84 82 82 83 83 85 83 81 81 75 66 73 81 82 85 91 94 99 97 93 94 94 94 95 97 97 98 97 91 80 69 61
98 98 98 98 98 94 89 87 85 83 83 83 81 82 81 76 65 70 77 86 92 94 95 95 97 96 91 87 85 87 95 98 98 97 94 87 77 67
98 98 98 98 98 98 96 93 89 85 84 82 81 80 81 78 69 60 61 70 79 87 94 95 94 94 95 94 92 92 92 95 97 96 94 90 84 74
98 98 98 98 98 98 99 97 94 90 88 84 80 79 80 80 77 69 61 58 63 73 80 92 97 96 95 93 93 93 92 95 96 95 90 89 84 78
98 98 98 98 95 91 86 87 91 93 91 89 85 82 80 81 77 75 72 69 64 67 71 76 90 96 97 97 97 95 98 98 98 95 89 87 83 76

GFSNE_prec_cthk_021.txt.gz
RH
81 88 90 98 93 97 95 96 96 85 83 78 75 75 70 68 62 54 48 42 38 36 37 38 38 44 52 48 43 47 54 52 57 73 85 88 96 90
85 90 94 93 88 83 80 82 79 78 69 67 65 63 60 57 53 52 48 43 36 35 36 36 38 39 50 52 47 43 46 56 57 64 76 87 96 96
94 90 85 80 74 71 68 64 62 61 60 54 53 51 44 41 40 40 42 43 43 37 36 36 38 38 39 51 53 50 45 47 59 56 70 76 89 94
86 79 73 67 64 64 61 58 55 54 56 53 48 47 46 38 37 36 35 35 38 42 39 37 37 36 37 40 52 54 49 46 50 58 58 77 79 88
67 63 60 58 56 55 53 50 48 46 47 47 41 38 36 32 30 31 32 31 29 31 32 34 34 34 32 34 38 52 54 50 47 57 61 67 76 80
55 54 52 48 47 43 39 37 35 34 36 39 38 34 36 36 37 34 32 35 31 30 28 29 33 32 31 30 30 33 50 52 52 55 64 61 64 67
54 49 45 41 35 33 35 34 37 38 40 43 44 43 44 46 46 47 45 44 40 38 33 29 29 34 36 31 30 30 31 46 53 58 62 62 71 72
50 46 38 33 33 33 36 41 46 51 55 60 61 61 63 66 67 65 63 60 54 56 47 38 36 30 32 36 34 32 32 32 39 55 68 69 69 72
41 38 37 36 40 46 51 58 66 70 73 76 75 74 74 77 75 73 73 71 70 70 63 51 47 39 35 32 33 31 34 35 37 47 64 72 70 67
37 37 39 44 54 63 71 75 79 82 87 89 88 87 88 89 88 86 82 77 78 79 79 64 63 50 46 39 34 34 36 37 40 51 61 71 77 68
37 40 49 60 73 83 83 84 86 89 93 93 92 93 92 93 93 93 91 86 82 86 84 78 79 66 59 49 39 36 35 37 41 50 60 66 73 81
41 49 66 78 86 88 89 90 90 91 92 94 95 94 94 96 97 96 95 94 91 88 90 87 86 85 73 63 52 45 38 35 38 47 58 66 67 70
49 67 84 88 93 93 93 88 84 85 91 94 98 98 97 95 95 96 94 90 89 91 97 91 90 89 84 75 69 59 50 41 41 44 52 58 63 63
68 88 94 97 95 94 89 83 83 84 86 90 95 97 97 97 97 97 96 96 94 95 96 94 93 95 91 91 83 73 61 52 47 51 48 51 55 58
98 98 98 98 97 91 84 84 83 83 85 86 85 82 81 81 83 86 95 97 98 98 98 98 98 99 98 95 96 90 79 66 55 51 55 49 49 53
98 98 98 98 96 85 81 83 83 82 81 81 81 82 78 77 78 77 76 81 93 98 98 98 98 99 99 98 99 94 87 82 71 61 56 51 45 45
98 98 98 98 94 84 82 84 84 82 81 78 76 72 70 68 55 55 63 68 73 83 98 98 98 98 99 99 98 98 94 87 82 73 63 52 47 42
98 98 98 98 94 88 85 82 82 80 79 77 76 74 71 69 57 61 72 75 77 78 81 97 98 98 98 98 98 98 98 96 88 83 76 66 54 45
98 98 98 98 98 95 90 87 84 82 80 77 76 76 76 72 64 65 70 80 84 84 86 88 96 98 98 99 97 98 98 99 97 90 89 86 77 64
98 98 98 98 98 98 97 93 90 85 81 79 77 76 75 74 69 63 63 69 76 85 93 93 93 97 99 99 98 97 96 97 98 98 96 93 90 82
98 98 98 98 98 98 98 98 95 91 87 81 77 76 77 75 74 69 62 60 65 73 84 92 96 96 97 98 97 93 90 91 96 97 97 95 92 86
98 98 98 98 94 88 81 81 88 90 89 86 81 77 76 77 75 74 70 64 64 65 71 83 93 97 95 96 98 97 95 93 91 91 94 93 92 91
98 96 93 87 81 74 69 63 58 59 63 72 80 80 76 75 73 73 72 73 71 69 67 71 82 95 97 97 97 97 97 96 93 91 91 92 89 90

GFSNE_prec_cthk_024.txt.gz
RH
75 78 80 83 85 88 91 94 94 93 93 92 90 90 88 82 78 78 76 71 63 55 48 43 38 34 34 34 36 38 41 42 38 39 46 58 63 55
83 88 92 97 97 96 95 93 93 92 90 86 84 82 80 74 71 67 67 62 54 50 46 41 35 33 30 31 34 37 39 41 43 37 39 46 57 65
96 97 94 93 90 88 86 87 83 79 76 73 73 72 69 66 62 60 57 57 53 52 45 36 29 27 28 27 28 33 39 42 42 43 38 38 46 59
89 85 81 77 76 75 78 77 74 71 70 66 64 62 59 57 58 57 54 51 49 44 42 38 29 24 24 25 25 26 33 40 43 43 43 37 38 46
73 69 66 67 67 66 64 62 61 61 61 59 54 54 52 48 44 43 42 41 40 38 35 33 32 26 22 22 23 24 25 32 42 45 43 44 39 39
69 67 65 64 66 65 63 60 55 52 54 54 50 47 47 47 47 47 47 48 47 47 45 39 38 35 30 24 23 23 24 25 34 44 44 44 44 40
63 63 62 59 55 49 49 47 48 44 48 49 47 42 45 46 46 46 46 46 43 47 45 42 42 40 37 34 28 25 24 24 24 34 44 45 46 44
57 58 57 53 53 49 41 42 43 46 50 53 53 53 56 61 62 62 60 58 54 56 53 49 48 43 40 41 39 39 32 28 24 25 34 44 47 49
48 50 49 47 46 46 48 51 53 56 62 69 71 73 73 77 79 77 77 75 71 70 69 62 62 55 49 44 37 34 29 29 26 25 26 32 46 50
47 47 47 43 45 51 55 59 65 73 80 83 82 83 85 87 89 90 88 84 80 76 73 68 70 64 62 53 44 37 31 30 30 27 26 28 32 45
45 46 49 49 51 58 65 71 80 86 89 89 90 89 89 92 95 97 94 95 89 89 89 83 76 72 72 64 56 44 38 30 29 30 30 30 33 39
52 53 53 54 60 71 78 84 90 94 94 89 90 93 95 96 96 95 96 97 98 97 96 95 90 83 80 73 67 61 49 38 31 29 30 34 35 43
61 59 61 67 77 84 89 95 96 88 85 87 87 88 92 96 98 98 98 98 98 97 98 94 94 91 86 86 81 76 68 56 44 33 32 34 38 47
65 67 77 87 90 96 98 97 89 86 88 88 89 91 90 89 89 90 93 97 99 98 99 95 93 91 92 93 91 85 81 70 59 51 40 36 41 45
79 91 98 98 98 98 99 90 85 86 87 87 84 82 80 78 78 79 80 79 85 93 98 98 97 97 92 97 98 95 88 81 69 62 56 48 41 46
98 98 98 98 98 98 91 88 87 87 86 83 79 76 71 69 65 61 60 64 73 83 90 98 98 98 96 98 99 98 93 92 85 75 65 60 56 48
98 99 99 98 98 94 92 90 87 85 82 78 77 74 70 66 55 56 61 69 73 75 76 90 97 98 98 98 98 99 96 94 91 90 81 67 60 56
99 98 98 98 99 96 92 89 87 84 80 77 76 75 71 68 61 61 64 71 76 78 82 83 94 98 98 96 96 98 98 97 95 90 84 82 69 57
98 98 98 98 98 99 97 96 91 86 82 79 76 74 73 70 67 64 63 67 72 80 86 87 88 98 98 99 98 97 98 98 97 96 88 86 82 75
98 98 98 98 98 99 99 99 95 91 85 79 75 74 72 71 70 67 63 63 66 72 82 90 92 93 99 99 99 97 98 98 98 98 98 93 88 84
98 98 98 98 98 90 85 87 91 92 90 85 79 75 73 71 70 68 65 64 64 64 69 82 91 94 96 98 98 98 97 97 98 99 98 99 96 93
99 99 98 94 87 82 75 72 66 66 68 80 83 78 74 74 72 70 67 67 69 68 68 71 84 94 94 98 98 98 99 97 95 98 98 98 98 98
91 91 87 82 78 75 72 69 64 61 56 53 63 81 78 77 75 73 70 67 68 67 69 71 73 86 94 91 95 96 97 97 94 94 95 98 98 97

GFSNE_prec_cthk_027.txt.gz
RH
73 76 81 87 87 86 88 85 84 84 83 84 93 96 94 97 80 79 74 73 75 80 75 68 60 53 49 46 43 41 38 34 35 38 42 42 41 43
88 89 90 96 97 97 94 94 93 96 95 95 94 91 89 86 81 87 79 76 76 76 75 70 61 53 47 45 42 41 39 37 37 36 37 40 42 40
95 97 97 96 95 92 92 91 90 92 90 85 87 86 86 86 86 83 80 76 74 72 69 66 63 58 49 42 39 36 34 33 35 39 37 35 37 40
92 92 89 84 78 78 78 80 82 87 85 78 81 78 74 72 71 75 75 73 69 66 64 59 56 55 49 43 36 33 30 27 27 31 38 36 35 36
77 76 76 76 76 76 76 75 75 78 76 70 65 63 61 61 59 59 60 62 61 58 57 53 49 49 44 37 36 31 27 23 21 23 29 35 37 37
65 67 68 69 71 76 75 71 70 69 67 64 60 59 62 61 61 60 59 57 54 57 59 54 51 48 41 39 32 27 23 20 19 18 21 26 35 39
43 47 57 66 63 62 63 62 63 60 63 62 58 56 58 53 50 53 56 56 53 53 53 51 50 50 46 43 39 32 26 21 18 17 17 19 24 38
39 41 47 48 50 52 53 51 52 54 53 50 48 48 51 55 57 60 61 61 59 61 58 52 53 50 47 46 46 47 38 32 28 23 17 17 20 26
49 53 53 51 50 54 53 49 49 49 54 57 58 60 64 67 69 69 68 66 64 63 65 59 59 55 53 54 47 43 43 39 34 28 25 21 18 20
61 62 63 58 54 49 49 49 51 57 63 70 72 72 78 82 83 81 80 77 74 72 74 67 67 63 61 56 55 48 43 39 35 31 26 25 22 21
65 64 62 59 57 57 55 55 59 67 77 79 83 85 88 89 90 91 89 92 86 84 86 84 77 70 67 62 58 54 51 44 40 35 29 25 25 23
69 68 67 66 61 60 61 66 73 82 87 89 95 91 93 91 92 94 94 93 95 92 93 94 90 87 83 75 66 61 59 56 50 42 35 27 26 26
75 74 72 71 68 71 76 84 88 91 96 93 91 89 88 88 90 92 95 96 96 94 95 97 92 93 90 87 82 82 75 70 67 61 51 37 29 28
82 81 80 80 84 88 91 96 98 97 91 92 89 88 87 86 85 85 85 86 88 94 98 99 94 94 93 92 88 88 86 77 77 73 63 55 40 32
91 92 97 98 98 98 98 98 96 91 91 89 88 85 82 77 73 68 66 67 69 76 88 95 95 95 96 92 90 89 92 87 84 81 73 69 62 46
98 98 99 99 98 98 98 96 94 91 90 85 82 81 76 72 66 59 56 58 62 64 66 68 76 95 96 96 94 92 89 94 90 87 84 80 74 63
98 99 98 99 99 99 97 97 95 91 84 81 80 80 76 74 65 60 59 60 64 69 73 76 75 79 96 96 95 96 94 92 93 95 93 92 86 75
98 98 98 99 99 98 99 99 95 89 82 81 80 79 76 73 68 64 62 64 66 68 75 81 85 83 94 95 95 95 96 97 98 98 98 97 96 86
99 99 99 99 99 99 98 98 97 93 87 82 79 77 74 72 69 65 62 61 64 68 72 81 88 90 93 98 99 98 97 98 97 98 99 95 95 95
99 99 99 99 99 97 93 96 98 98 92 87 81 77 74 71 69 67 63 60 59 63 69 74 86 91 96 98 99 99 99 98 98 97 99 98 97 98
99 99 99 99 96 88 84 79 78 78 82 90 87 80 75 73 70 68 65 61 61 62 65 68 74 87 96 98 98 98 98 98 98 98 98 99 98 98
99 99 99 95 88 82 77 74 73 68 67 65 80 83 80 77 73 70 68 67 67 66 64 66 70 80 92 93 97 97 98 98 98 99 99 98 98 99
93 91 90 88 85 82 78 72 67 64 62 56 53 57 78 79 77 75 74 72 68 67 65 67 67 74 83 90 91 93 97 97 99 97 98 98 98 98

GFSNE_prec_cthk_030.txt.gz
RH
70 75 75 79 78 82 85 89 96 95 83 77 80 78 86 87 97 92 97 95 82 82 63 62 63 60 57 54 55 55 49 46 44 39 37 41 43 44
74 79 83 87 91 93 94 94 93 94 87 86 89 86 91 92 97 91 94 79 88 79 72 69 68 64 62 57 54 54 53 48 43 42 39 36 37 41
80 82 85 86 88 89 90 88 90 92 88 83 80 85 90 90 93 94 93 92 87 78 78 70 62 56 56 57 54 52 50 50 46 43 41 39 39 37
69 67 63 69 73 73 74 78 82 81 79 73 73 76 78 84 87 90 91 90 89 84 81 78 71 67 63 62 58 58 53 49 46 44 43 40 38 39
42 34 41 46 50 58 70 75 77 76 76 72 68 68 64 63 64 64 67 69 69 68 67 68 64 63 59 57 54 55 54 49 44 42 39 38 38 35
35 32 34 39 43 49 53 61 71 74 72 70 63 61 62 61 61 63 65 65 62 61 60 59 61 62 60 61 58 53 49 48 46 40 36 34 33 32
30 30 34 39 46 50 53 49 46 50 57 57 60 60 60 63 68 66 62 61 58 59 58 54 53 56 57 56 51 49 47 46 45 44 36 30 28 28
43 44 50 53 57 63 62 54 48 45 48 52 50 53 52 53 56 61 61 59 56 57 58 55 56 51 47 49 52 50 45 40 42 44 40 35 28 24
52 56 59 63 64 68 66 65 59 53 48 44 51 51 57 58 61 61 63 64 64 63 65 63 63 60 58 56 53 51 50 46 41 41 42 38 32 27
66 69 70 69 68 65 60 55 53 53 51 53 57 59 68 70 76 76 74 73 71 69 73 66 66 63 63 61 58 56 53 53 49 42 37 36 35 31
68 74 76 73 70 69 68 63 58 54 58 61 65 70 76 79 81 83 84 84 79 76 79 79 78 74 71 66 62 57 53 50 49 47 42 38 34 30
82 82 85 84 80 75 71 67 63 64 68 72 75 80 85 92 93 92 91 92 92 89 90 92 88 88 84 79 75 69 66 63 57 52 45 42 40 36
84 90 87 85 83 79 75 74 77 82 85 87 88 95 93 93 91 90 90 91 93 94 92 94 91 93 92 91 88 85 81 75 71 69 62 56 50 42
97 97 96 94 95 95 95 93 91 91 91 97 95 93 92 89 88 84 80 76 74 77 86 93 96 98 98 96 93 91 91 89 88 83 73 68 62 55
98 99 99 99 99 99 99 99 99 99 98 94 94 91 88 83 76 71 65 58 54 53 54 60 65 77 91 95 95 95 96 92 90 90 87 75 67 63
98 99 99 99 99 99 99 99 99 97 95 94 88 83 81 78 73 69 60 58 56 63 65 65 66 67 63 68 89 91 93 95 90 88 91 86 74 72
98 99 99 98 98 98 98 98 99 98 93 85 83 82 79 77 73 64 62 62 62 61 64 68 74 77 76 74 78 91 92 91 90 93 91 92 85 81
98 99 99 98 98 98 99 98 99 95 87 84 82 80 78 75 71 67 62 61 62 65 65 66 70 78 82 83 88 93 93 93 94 96 94 92 93 90
99 99 99 98 98 99 99 99 99 97 89 85 83 81 78 75 72 68 64 61 59 60 64 69 73 80 88 90 94 98 98 98 97 97 96 94 99 96
99 99 99 99 99 97 94 88 90 92 95 93 89 83 79 75 71 69 67 64 61 61 62 63 66 74 86 95 96 97 97 96 98 97 97 98 98 96
98 99 99 99 98 89 84 80 78 77 75 78 89 87 82 78 74 71 70 67 64 62 63 63 64 70 81 92 94 96 98 97 97 97 97 98 99 98
89 93 97 96 92 88 81 76 74 73 67 66 68 83 86 83 80 76 73 71 68 66 66 64 65 67 77 87 88 92 94 96 96 98 99 98 99 98
82 80 86 85 84 83 80 77 69 61 58 55 54 55 54 70 80 78 76 75 75 73 71 68 66 68 70 77 86 86 89 94 97 98 98 98 98 98

GFSNE_prec_cthk_033.txt.gz
RH
54 58 61 68 74 82 85 86 90 74 65 70 72 76 78 71 70 81 70 83 96 99 97 93 95 91 89 74 65 60 53 51 48 49 45 43 42 45
65 71 74 72 75 79 83 88 93 90 73 74 76 80 82 86 85 79 84 86 93 91 97 97 90 88 83 73 66 57 54 48 50 47 49 45 42 41
72 60 57 59 58 60 56 65 65 77 78 70 71 74 77 79 90 96 94 95 97 97 94 93 90 85 76 71 63 57 56 53 51 47 46 50 45 42
52 56 55 56 41 33 40 47 53 55 58 64 69 72 72 73 72 76 87 87 92 94 96 93 92 89 80 77 71 61 57 56 54 49 46 45 47 43
54 54 51 45 35 30 35 38 40 44 50 56 66 70 68 66 64 64 67 73 80 84 86 85 87 82 79 75 68 58 52 52 50 48 48 45 44 45
46 44 40 36 34 36 41 43 44 43 42 41 44 61 66 65 63 62 58 62 64 70 71 70 69 66 61 61 60 58 57 53 56 52 51 49 45 44
42 43 43 44 49 58 62 56 55 54 49 45 42 45 59 59 57 60 61 61 61 66 65 67 69 66 62 59 58 64 67 61 54 51 52 52 49 45
48 49 51 56 61 66 69 70 71 66 61 58 54 49 45 50 56 58 56 56 54 52 56 53 55 53 56 56 54 56 60 59 58 59 55 51 51 49
55 55 55 60 63 66 72 72 72 71 66 61 58 49 47 52 59 61 64 64 63 62 61 56 57 52 51 52 52 52 51 51 51 54 54 55 50 50
66 69 69 72 78 73 70 71 70 67 66 63 59 51 55 54 63 66 69 71 70 68 71 64 64 60 59 56 55 55 54 52 51 50 49 50 49 47
78 81 83 83 88 88 82 80 74 69 69 67 63 59 58 61 70 73 75 76 71 69 71 70 61 59 60 59 60 59 57 55 54 53 50 46 44 43
84 86 91 96 95 90 84 81 72 68 65 63 60 60 68 73 75 77 81 85 88 90 86 84 80 79 71 63 66 63 62 60 60 58 55 52 49 44
86 91 96 97 98 97 93 90 85 80 77 77 78 80 85 88 90 95 96 95 93 92 88 90 90 90 87 86 83 81 78 74 70 67 63 63 61 56
92 94 97 99 99 99 99 99 96 90 88 89 89 93 96 96 94 93 90 86 82 79 78 79 83 89 90 92 92 88 89 89 88 85 80 75 69 64
95 98 99 99 98 99 99 99 99 99 99 99 99 97 95 95 93 89 79 70 60 57 60 59 59 63 67 70 75 85 91 92 93 92 90 86 83 76
97 99 99 99 99 99 99 99 99 98 98 98 97 96 91 86 81 74 67 60 60 58 61 64 66 66 66 66 65 63 71 88 94 95 92 87 88 87
98 98 98 98 98 99 99 99 99 98 98 96 90 85 82 80 76 72 64 61 62 60 59 60 63 68 72 77 80 80 80 77 92 95 93 89 91 89
98 98 98 98 99 99 98 98 98 98 94 89 86 84 80 77 74 72 67 63 61 61 61 62 63 66 70 77 81 87 95 93 93 98 97 95 93 94
96 98 98 98 99 99 98 96 97 98 94 90 86 84 82 78 75 72 69 67 64 62 61 60 61 64 70 76 83 89 94 97 98 98 98 96 93 92
93 98 98 98 99 92 89 85 84 80 81 89 92 89 85 80 75 72 70 69 65 63 62 62 61 61 66 74 82 87 94 97 96 96 96 95 94 96
85 86 95 97 95 89 81 80 79 74 69 72 78 92 89 84 81 75 72 70 68 65 64 63 62 62 65 74 77 79 88 91 93 95 97 96 95 96
81 79 83 86 86 85 84 75 68 64 62 61 66 64 82 93 88 84 78 74 73 70 67 67 62 63 64 68 75 75 80 87 90 93 95 98 98 97
82 79 78 78 80 81 80 77 72 66 58 56 57 54 53 57 59 68 72 70 69 68 70 70 70 69 66 66 69 72 76 79 84 91 94 96 97 97

GFSNE_prec_cthk_036.txt.gz
RH
58 62 67 70 71 73 71 75 79 68 62 63 66 71 69 66 67 68 65 66 64 67 83 93 98 98 97 95 89 80 71 62 54 48 48 50 51 50
66 69 72 65 62 60 62 64 69 70 57 62 55 62 74 75 76 76 82 80 75 70 73 89 96 98 98 98 98 97 94 82 63 53 48 46 49 51
65 57 57 56 65 63 62 56 49 46 49 45 48 49 57 68 73 77 81 86 87 81 83 86 96 98 96 95 93 89 89 90 74 63 52 46 45 47
52 53 59 59 55 53 49 43 38 35 39 37 40 40 46 59 71 70 71 79 84 86 90 91 89 85 85 91 95 85 81 83 77 67 61 50 45 42
57 56 54 49 42 39 37 34 31 30 34 38 37 38 40 44 56 67 71 67 67 74 86 82 91 90 97 95 90 93 83 77 70 62 58 56 48 42
50 47 45 45 43 44 46 46 46 45 44 44 43 43 42 39 46 60 60 60 59 64 67 74 83 85 85 87 89 90 87 76 67 59 57 55 55 47
47 47 48 48 49 55 60 60 62 62 60 58 56 54 50 44 41 49 60 60 56 57 59 70 74 75 77 77 77 78 75 72 65 61 56 52 46 43
49 49 51 53 57 61 62 64 70 73 70 73 70 62 52 52 46 42 54 62 61 56 55 58 65 73 71 71 72 70 68 68 63 63 59 52 49 43
49 53 59 66 69 69 74 79 81 79 73 76 73 66 58 53 51 44 48 62 65 63 63 57 53 48 52 56 61 62 61 63 58 55 51 50 48 46
55 65 71 73 75 83 89 91 93 92 84 77 73 67 61 53 54 52 48 59 64 65 67 63 61 57 58 53 50 48 48 47 49 49 48 47 49 51
64 75 77 79 91 96 96 95 92 88 82 78 71 67 65 59 58 56 50 61 63 66 71 71 63 62 59 55 53 54 55 52 50 48 48 47 46 46
69 82 86 90 95 98 98 98 92 87 81 75 69 64 60 55 57 59 63 64 71 71 73 70 72 71 63 58 56 56 58 56 54 53 51 51 48 46
77 83 91 97 99 99 99 99 99 93 89 83 79 75 74 76 76 77 77 77 80 80 82 80 78 75 76 74 69 64 61 61 61 59 56 54 54 57
81 87 95 98 98 98 99 99 99 98 93 90 89 88 88 88 88 87 89 90 92 89 84 80 80 77 79 84 83 81 81 76 69 65 64 62 61 61
86 92 96 98 98 99 99 99 99 99 98 98 97 96 96 97 98 96 94 92 84 76 66 61 57 55 56 61 69 76 79 81 83 83 83 78 73 70
87 93 96 98 98 99 99 99 99 99 99 99 99 98 98 97 96 93 86 75 63 60 58 60 61 60 58 58 58 58 57 58 66 81 93 94 90 83
88 93 96 98 98 98 99 99 99 99 99 99 99 97 93 88 84 79 72 62 62 62 60 59 59 60 61 63 63 66 70 70 71 71 69 84 91 90
85 92 95 98 98 98 98 98 99 98 97 92 90 88 85 82 80 75 68 64 62 60 61 61 60 61 62 64 67 68 70 72 80 89 85 80 92 92
76 86 95 97 98 93 90 89 88 84 90 96 92 89 87 83 78 73 69 68 66 64 61 59 57 58 59 63 67 72 76 78 87 93 97 96 94 94
67 74 87 93 95 91 84 82 80 76 70 74 94 92 87 83 78 74 73 70 68 65 64 63 60 59 59 62 68 70 71 78 87 90 93 94 95 95
64 67 76 83 87 88 84 77 71 67 66 69 73 86 93 88 83 78 75 74 71 67 65 64 63 61 58 62 68 68 70 75 82 86 89 91 94 92
65 64 72 77 79 81 82 81 74 65 61 62 63 62 66 87 94 91 87 80 75 73 73 71 70 67 65 65 67 70 68 72 79 83 86 90 95 96
65 67 69 77 79 80 80 79 78 75 72 63 60 56 49 52 56 60 61 62 63 64 68 71 72 73 73 72 70 67 66 70 72 76 82 89 93 96

GFSNE_prec_cthk_039.txt.gz
RH
53 59 65 68 74 70 68 72 66 56 52 46 50 58 64 66 64 60 56 55 53 53 56 56 67 81 94 98 98 98 89 80 73 62 58 51 49 49
54 57 59 59 60 60 56 63 67 60 52 51 46 45 46 46 52 51 59 62 60 58 66 64 60 72 83 87 95 98 97 94 85 77 68 61 55 51
49 51 54 54 55 56 54 58 55 60 50 47 45 37 36 37 38 41 44 55 65 64 66 75 70 67 82 84 94 98 97 98 98 91 80 71 62 56
52 53 52 51 51 51 50 48 47 45 42 37 32 32 38 37 36 36 38 42 56 63 68 78 83 76 74 86 93 96 95 97 95 96 92 85 75 62
48 47 46 46 46 46 44 43 45 47 49 48 42 42 39 37 35 35 34 37 41 58 65 72 86 89 83 78 89 93 97 96 97 95 90 90 90 79
50 48 48 48 46 44 44 46 49 52 57 60 57 55 53 49 45 42 36 33 37 44 56 64 74 88 91 85 72 79 92 95 95 94 87 84 79 79
47 49 48 47 47 49 53 55 58 60 64 65 63 65 65 64 59 52 45 37 31 39 51 55 63 76 86 89 83 78 83 91 93 91 83 80 75 69
48 48 47 47 52 62 70 70 72 78 79 77 72 68 69 71 69 62 52 45 36 36 49 54 54 61 73 83 86 81 79 78 90 92 91 84 76 71
49 47 46 51 64 70 73 79 85 89 89 89 87 85 76 71 73 68 59 50 43 38 47 57 58 53 54 63 71 76 77 79 80 83 84 79 75 70
47 44 46 62 76 82 88 92 95 95 95 91 90 89 83 78 78 71 61 54 47 40 45 60 60 60 57 52 50 55 59 58 64 65 67 68 65 62
44 48 64 78 84 93 96 98 98 97 96 92 87 82 80 79 78 73 66 61 51 44 53 61 61 64 62 58 55 53 50 49 52 51 52 53 54 51
45 55 78 86 94 99 99 98 97 97 98 95 90 84 81 74 68 63 61 57 56 53 57 65 68 70 69 63 58 57 53 52 51 53 51 49 49 50
48 64 83 90 97 98 99 99 99 98 98 98 91 87 83 79 75 70 68 68 68 68 71 75 75 74 73 70 65 64 59 53 56 58 55 53 51 49
51 70 85 95 97 97 98 99 99 99 99 99 92 90 89 87 84 82 82 83 82 80 81 83 80 78 79 80 77 74 72 68 65 65 63 61 59 58
54 71 86 94 97 98 98 99 99 99 99 98 98 96 93 91 90 89 90 88 88 88 86 84 83 82 79 77 76 76 80 77 75 73 69 65 64 63
54 71 87 95 97 98 98 99 99 98 99 99 99 99 99 99 99 98 99 98 96 87 79 70 67 65 62 59 55 56 60 65 68 72 74 77 79 77
52 66 85 93 97 97 98 99 99 98 98 99 99 99 99 99 99 97 92 81 67 66 65 62 61 62 62 63 63 62 62 61 61 61 58 57 64 80
50 54 79 92 96 92 89 89 91 86 93 96 93 90 89 86 82 78 76 69 66 65 62 61 62 63 63 63 63 63 63 62 61 60 64 68 72 73
54 50 65 83 90 91 84 83 82 76 69 85 96 92 88 85 82 81 77 72 70 68 67 64 62 58 58 60 61 63 64 64 63 67 74 80 86 87
58 54 54 70 82 87 86 78 72 72 71 73 81 96 92 88 83 79 76 74 73 71 69 65 63 62 60 59 62 63 62 63 65 70 79 85 89 93
58 59 54 59 72 79 81 81 79 72 66 69 70 71 82 93 88 81 78 75 73 70 67 65 66 65 65 61 63 66 66 65 67 72 77 81 87 92
58 60 59 58 65 75 79 80 80 80 76 67 64 59 58 68 82 87 87 82 76 73 71 71 70 70 68 65 66 67 68 67 67 69 72 79 86 93
58 59 60 62 64 70 79 81 81 80 79 77 74 64 56 50 52 59 63 68 64 64 67 69 71 72 72 71 70 67 66 67 67 68 70 73 81 90

GFSNE_prec_cthk_042.txt.gz
RH
58 64 59 53 53 54 61 69 71 60 41 40 45 43 42 43 46 50 51 53 53 49 42 37 38 40 46 64 75 94 96 86 81 80 72 62 55 49
75 71 62 56 56 54 55 60 61 57 53 45 37 40 39 39 45 42 38 42 43 45 49 47 42 46 52 55 76 83 93 88 94 84 76 70 68 60
74 68 60 52 49 51 51 51 52 55 51 39 40 39 39 38 40 41 36 34 36 37 38 48 52 50 55 59 76 90 92 93 97 93 90 83 73 71
67 54 47 48 49 49 49 49 48 49 51 47 43 43 43 43 46 41 34 33 33 33 32 35 49 53 60 64 69 85 93 94 97 96 94 94 90 84
59 51 47 46 46 46 44 43 43 45 51 53 48 47 47 51 52 50 43 36 32 32 32 33 39 55 59 71 79 73 70 86 86 91 92 94 95 91
54 48 46 46 45 45 45 45 50 58 64 67 65 64 61 57 61 61 57 50 39 34 29 31 32 50 61 74 82 80 73 78 88 91 95 94 97 97
46 45 45 46 49 48 49 56 69 71 73 71 74 76 76 74 70 68 64 60 47 39 33 28 30 36 60 70 82 85 81 71 83 90 96 96 97 96
42 42 43 43 42 45 58 71 77 80 85 87 85 83 83 85 84 74 70 67 56 50 40 33 30 34 49 66 75 81 91 85 77 71 84 93 94 90
43 43 40 40 43 56 70 80 91 96 98 96 93 94 91 95 96 91 77 71 64 60 50 37 35 35 45 56 66 74 84 85 89 77 79 90 96 94
43 42 43 43 54 73 81 91 97 97 99 99 98 97 94 94 97 96 86 77 67 61 58 41 40 36 45 57 57 59 68 73 80 85 82 85 87 92
43 45 46 50 73 86 92 95 97 97 98 99 99 99 96 92 94 90 81 77 71 69 60 47 43 42 45 57 62 60 58 57 59 65 69 70 71 77
44 47 49 60 83 92 96 98 97 98 98 96 98 97 93 90 87 85 79 77 72 64 58 50 53 54 54 68 68 65 63 57 56 57 56 53 58 59
46 48 50 69 87 95 99 99 99 98 98 99 99 93 92 87 85 82 78 71 65 63 66 66 68 66 68 77 74 72 69 65 60 56 54 56 56 56
48 49 51 71 88 97 98 99 99 99 99 99 98 96 91 90 87 85 83 82 81 79 78 78 77 74 80 81 77 77 76 72 66 63 63 63 60 57
49 49 51 68 86 95 98 98 99 98 98 99 98 98 97 93 91 89 89 89 88 88 86 84 81 82 83 82 81 79 76 77 75 70 67 66 66 65
50 47 48 65 85 94 96 98 99 98 98 98 99 98 98 98 99 96 94 93 92 90 90 88 85 85 85 84 83 82 80 79 78 80 79 75 72 67
50 49 45 59 82 88 85 86 90 88 90 99 98 99 99 99 99 99 99 99 98 94 91 85 78 75 73 71 67 64 63 63 63 64 64 64 64 66
50 50 46 49 71 84 83 79 80 79 73 85 98 94 91 92 93 92 89 82 75 74 74 72 72 71 70 70 70 68 67 65 63 58 54 52 54 54
48 53 49 46 55 75 84 82 73 73 74 75 82 97 91 86 82 79 77 75 71 70 70 70 69 68 66 66 68 67 68 67 64 60 56 58 60 62
46 52 53 51 50 60 75 80 82 76 72 72 74 74 88 90 86 81 78 74 72 70 70 71 69 67 65 64 65 65 63 61 61 60 61 64 69 73
47 48 54 55 54 55 63 75 80 81 81 76 70 65 63 73 86 85 82 78 73 70 68 66 66 67 67 67 63 65 66 65 62 61 62 65 69 75
51 47 50 54 57 58 60 67 77 81 81 80 80 71 62 58 63 71 71 70 70 71 72 72 71 71 71 70 68 68 68 68 66 65 65 65 69 74
56 51 49 51 54 57 60 65 72 83 84 82 80 79 74 61 57 54 58 65 64 69 77 79 78 77 76 76 76 73 69 68 67 67 67 66 70 73

GFSNE_prec_cthk_045.txt.gz
RH
55 61 63 62 62 61 58 57 54 49 42 54 50 52 44 45 37 41 38 36 39 42 41 41 37 33 30 33 43 52 54 66 75 82 97 96 85 69
71 68 65 64 60 55 51 52 55 53 43 47 45 47 43 42 42 38 35 32 34 34 32 36 44 40 37 35 40 51 64 63 75 82 79 89 89 83
73 69 67 62 53 48 48 49 49 49 44 41 43 43 46 47 50 51 49 47 45 37 32 32 33 40 40 40 41 48 67 62 81 79 79 77 80 82
75 68 65 55 46 45 45 44 46 47 47 46 43 46 50 52 51 51 53 55 57 45 35 33 32 30 36 40 42 49 56 70 87 77 77 81 86 75
75 68 53 43 44 44 46 47 52 52 51 54 53 65 63 65 63 61 59 54 53 49 39 34 32 31 33 38 46 52 63 66 89 89 86 98 94 90
67 47 41 42 46 47 48 49 52 55 66 72 72 73 75 75 75 70 69 68 60 57 47 39 34 30 29 35 44 56 71 66 89 93 83 88 88 91
42 41 40 42 42 43 47 50 59 72 78 82 86 87 89 89 87 84 77 75 70 63 57 47 39 33 27 30 41 50 77 75 77 95 91 85 85 89
40 40 40 39 41 42 44 54 74 81 89 93 94 94 96 97 98 96 88 84 80 76 64 56 48 40 33 33 39 50 65 80 74 90 94 85 84 92
42 39 38 41 44 47 52 73 85 93 94 95 94 98 97 99 99 98 93 90 91 87 72 63 60 46 40 33 32 49 56 76 77 75 88 90 86 88
41 39 40 45 47 51 68 83 92 96 98 99 99 99 100 100 100 99 96 96 97 91 76 65 65 56 47 37 33 38 54 68 76 78 81 86 85 82
40 40 44 47 49 57 78 87 92 97 99 99 98 98 99 97 95 94 95 97 98 90 85 75 69 63 53 39 34 37 48 56 67 75 85 81 78 75
42 44 47 50 51 65 82 89 92 98 98 97 98 99 98 93 91 92 92 92 90 90 85 77 73 65 55 48 43 42 53 59 58 59 66 70 77 79
44 46 49 47 53 71 85 92 95 97 98 98 98 98 94 91 90 89 91 93 93 88 82 76 73 68 65 62 59 55 61 66 64 61 61 61 62 68
42 47 46 44 52 71 86 94 97 98 98 99 99 99 98 94 89 88 87 86 84 82 80 79 78 75 72 69 68 66 72 75 71 68 64 65 65 65
41 45 44 44 54 71 82 87 94 98 97 99 99 99 98 97 94 91 89 90 89 87 86 85 81 79 78 75 74 81 84 81 77 75 71 69 65 65
41 44 44 43 49 65 76 79 83 83 80 96 98 99 99 99 99 99 96 93 91 91 90 89 88 86 82 84 85 85 85 84 82 85 82 79 78 74
42 44 45 45 48 57 74 75 75 78 75 84 98 97 97 99 99 99 99 98 99 97 95 91 90 89 89 89 90 87 86 85 81 80 81 80 77 76
46 43 46 45 46 49 62 78 78 72 76 78 83 98 94 91 95 99 99 99 99 97 97 94 91 89 86 83 80 77 75 75 76 78 76 74 72 70
51 44 45 47 47 50 52 65 78 81 76 74 73 75 93 92 85 83 82 82 79 76 76 75 76 76 76 76 74 73 73 71 69 66 62 59 58 57
57 51 45 47 48 50 53 56 67 78 81 82 72 68 64 78 90 85 82 78 75 74 74 74 73 72 72 70 69 67 66 64 63 60 58 56 58 60
62 58 51 46 48 50 54 56 59 71 79 79 82 75 66 59 66 73 77 78 75 74 75 74 72 71 70 69 69 68 67 65 63 61 59 59 63 64
69 64 59 51 48 46 49 57 60 63 74 81 80 81 78 66 60 59 61 63 62 73 79 77 76 74 73 72 72 67 67 68 66 64 62 60 61 64
77 73 67 60 54 50 48 50 56 60 64 73 79 79 80 78 69 59 56 57 58 61 71 81 82 80 79 77 77 75 71 68 66 66 65 63 62 63

GFSNE_prec_cthk_048.txt.gz
RH
62 68 67 71 69 70 71 70 66 50 52 54 53 54 55 61 61 55 48 41 33 30 30 29 35 35 34 33 30 28 31 40 38 51 58 65 82 80
61 65 66 72 72 68 68 65 60 57 53 49 47 46 49 52 54 52 52 49 41 36 33 28 28 28 30 33 34 32 30 37 38 44 62 71 77 88
66 68 71 74 73 70 59 54 50 52 54 49 51 50 48 53 54 58 55 54 57 56 49 42 34 26 25 27 32 35 34 35 44 43 62 72 80 84
73 72 73 72 68 53 51 52 56 56 58 57 50 54 54 56 59 63 60 59 60 57 62 54 44 33 29 25 26 32 37 37 52 61 54 63 82 82
73 70 68 61 50 51 51 52 55 54 54 55 50 61 67 70 68 68 68 65 65 65 57 49 48 42 36 32 29 28 35 41 45 73 78 68 97 81
66 62 50 48 48 48 46 48 51 53 53 61 71 75 78 84 86 84 80 78 75 72 69 60 52 48 40 35 31 30 34 43 56 65 89 92 83 86
50 46 46 44 40 39 43 44 50 52 62 76 82 86 88 91 93 92 90 88 85 84 75 68 67 60 59 48 37 31 35 41 59 65 80 98 93 95
44 46 46 43 43 42 44 46 50 62 80 87 89 91 95 96 97 97 96 94 91 93 88 78 76 66 60 59 53 41 41 41 55 73 69 82 98 97
45 46 44 44 45 49 50 50 61 82 90 91 94 97 97 99 97 99 98 96 93 94 90 86 86 73 63 55 46 38 38 42 47 70 75 72 92 98
47 44 43 44 49 46 49 56 74 88 94 96 99 99 100 99 99 97 98 98 96 93 94 90 92 75 66 58 46 36 30 40 47 61 77 76 82 97
46 45 42 44 47 48 51 62 83 92 95 99 99 98 98 96 96 92 92 93 95 98 98 98 95 78 69 62 54 41 31 30 45 52 72 81 77 88
44 46 44 43 44 50 55 70 86 94 97 99 99 99 100 99 93 91 91 93 96 98 96 99 96 82 72 62 59 50 36 31 35 47 60 75 79 78
43 42 44 45 40 47 58 75 87 91 96 99 99 99 99 99 96 90 89 93 97 98 93 93 91 87 78 83 76 62 54 45 41 46 44 58 70 79
44 43 43 40 39 47 58 68 76 88 95 96 99 100 100 98 95 90 88 88 91 93 94 90 85 85 83 79 74 70 62 55 55 60 60 61 57 65
46 41 39 39 38 47 56 61 78 88 85 84 99 99 99 99 99 98 93 92 91 91 86 84 85 82 79 80 80 73 68 60 61 63 65 69 72 69
49 47 41 41 41 46 55 65 78 80 84 81 90 99 97 99 99 99 99 97 94 93 91 90 89 88 84 80 77 78 71 72 71 73 72 73 75 75
51 51 48 48 47 48 53 58 71 84 81 83 81 94 99 93 99 99 99 99 99 99 98 94 92 89 89 87 84 83 84 86 86 85 83 81 81 77
55 56 53 50 49 49 52 56 60 75 82 81 81 76 90 98 90 96 99 99 99 99 99 98 96 93 89 90 92 95 92 91 88 86 84 85 87 86
61 63 58 54 51 50 50 53 58 61 74 83 89 79 73 81 95 88 88 91 92 89 94 95 94 93 95 93 89 89 87 87 87 86 85 84 83 84
65 67 63 59 55 52 50 51 55 56 62 76 84 87 79 70 79 92 86 83 81 81 79 79 80 79 79 80 80 78 77 76 75 73 70 67 68 69
68 73 72 68 62 58 55 47 48 56 58 62 79 84 87 79 68 71 80 82 82 82 80 79 79 77 78 77 76 75 72 71 69 67 63 64 65 65
69 73 76 74 70 63 60 52 49 54 57 58 62 79 84 85 81 69 66 67 71 83 84 82 80 79 78 78 77 73 72 71 68 67 65 63 66 70
70 73 77 80 77 72 64 58 53 49 50 56 60 61 71 82 82 81 71 65 64 64 74 85 84 82 81 80 78 76 71 69 71 71 67 63 61 61

GFSNE_prec_cthk_051.txt.gz
RH
67 70 73 68 70 66 65 70 70 60 52 50 48 51 52 56 57 55 50 46 41 39 37 35 30 25 25 25 24 28 29 27 27 31 36 33 44 54
69 64 64 63 67 67 69 69 65 59 50 50 45 48 50 54 57 60 51 52 45 43 44 44 45 41 34 28 22 22 25 29 27 27 34 37 37 51
46 58 65 73 72 68 65 63 56 57 60 53 50 50 54 52 54 54 53 55 53 50 50 54 55 56 49 39 28 21 21 25 29 27 30 35 41 48
57 69 72 77 71 64 61 57 56 58 61 57 52 53 53 50 54 60 62 63 64 60 57 62 59 56 55 48 37 22 19 20 27 30 33 35 39 50
60 68 71 68 61 53 52 50 49 49 49 51 50 55 52 62 67 71 74 76 74 71 67 64 60 58 53 47 39 27 21 19 23 32 33 45 44 42
68 75 67 54 52 47 42 40 44 45 49 52 49 54 69 77 82 82 82 82 82 82 80 79 75 66 56 48 43 35 26 21 23 32 42 54 56 58
78 69 53 48 44 39 38 39 43 47 48 52 58 74 83 85 90 92 89 87 86 88 83 84 81 77 69 65 59 48 39 26 25 31 49 52 71 84
70 55 50 50 48 41 43 42 44 48 52 59 76 86 90 93 95 96 95 95 86 90 95 89 93 90 80 71 75 65 57 38 32 35 48 58 76 92
55 53 52 49 44 43 45 44 49 53 59 74 85 92 94 98 97 96 96 94 96 91 98 88 91 90 88 78 72 64 55 45 39 41 47 66 67 96
54 52 50 45 45 40 40 43 50 58 70 85 91 94 96 98 97 98 93 86 86 87 90 90 89 85 82 76 63 56 48 42 34 40 45 63 70 82
51 54 48 46 45 41 37 45 52 65 80 89 92 95 94 95 97 96 91 89 86 89 94 94 88 92 90 79 75 66 49 38 30 35 43 58 73 72
54 53 47 45 42 40 35 47 54 71 81 87 92 95 97 98 98 98 92 88 91 92 97 98 95 98 95 89 72 60 53 39 30 28 39 49 69 74
55 51 50 47 41 36 36 46 54 58 76 84 88 95 97 97 97 96 90 83 83 87 97 98 93 97 96 98 95 86 75 63 35 27 30 42 55 72
55 49 48 43 38 36 37 45 50 59 82 89 85 93 97 96 96 94 91 86 88 91 96 98 95 90 90 95 93 91 83 79 69 51 39 35 41 59
55 51 46 44 41 40 42 46 53 67 74 81 89 89 97 97 95 97 95 93 94 94 91 88 92 90 88 89 94 94 83 78 63 56 48 48 48 41
55 54 51 51 48 45 46 49 55 62 71 86 88 88 92 98 93 97 96 96 98 99 97 93 91 90 82 78 79 81 82 80 68 57 51 50 51 55
53 55 57 62 56 54 51 51 53 59 63 77 89 89 86 93 97 90 98 97 98 98 99 99 99 93 87 85 83 83 86 79 75 67 62 60 65 66
53 57 63 67 61 58 56 54 53 56 58 63 84 92 89 84 94 93 91 99 98 99 98 98 98 99 96 89 87 90 90 88 83 79 77 78 77 74
55 56 65 71 69 65 61 58 55 53 54 61 68 89 92 82 80 96 89 88 91 96 96 98 98 98 98 97 92 91 95 94 91 87 89 94 92 88
59 59 65 71 75 72 66 62 58 53 52 57 62 72 90 90 84 81 88 87 84 83 84 88 91 92 94 96 95 92 91 93 96 94 94 92 91 90
64 63 67 70 74 77 72 65 61 58 54 53 58 63 72 89 89 84 81 85 86 86 85 83 81 80 82 83 83 84 82 82 82 83 82 81 85 82
66 66 67 72 73 76 80 75 69 62 58 55 54 59 62 71 86 87 78 74 80 84 90 87 85 84 84 84 84 82 79 78 76 73 71 71 70 73
74 70 69 70 72 74 82 83 79 69 63 59 56 55 59 61 69 84 87 79 70 70 75 92 90 88 86 85 83 82 77 76 78 77 75 72 72 74

GFSNE_prec_cthk_054.txt.gz
RH
54 69 67 65 72 73 71 73 67 55 43 44 42 41 42 45 43 46 45 44 42 40 39 37 33 33 34 40 37 27 19 17 21 30 24 22 29 31
52 58 57 58 67 63 66 70 70 66 51 49 42 42 46 45 43 43 43 44 40 38 37 39 39 42 39 42 44 39 28 19 17 19 22 24 22 34
43 41 39 50 60 68 72 74 64 56 57 48 46 41 44 44 42 39 37 37 40 43 46 48 50 47 45 46 50 45 41 30 19 17 19 23 24 28
35 41 51 60 68 73 70 63 53 49 50 43 38 37 40 43 43 41 42 48 52 52 53 54 53 50 49 52 52 48 42 35 25 17 18 20 25 25
44 50 59 63 68 75 55 46 44 42 36 36 34 35 40 42 43 51 59 62 64 67 67 70 72 73 71 67 61 54 44 35 27 19 18 21 27 27
57 64 68 71 71 48 46 43 37 35 36 37 37 39 42 44 58 68 72 74 76 76 75 73 72 68 70 73 69 60 49 39 31 24 20 23 29 34
67 70 75 66 47 44 44 40 37 38 39 39 42 45 49 66 76 79 81 83 80 83 81 78 78 74 77 76 75 73 63 54 42 32 24 27 33 43
70 75 64 48 49 48 44 39 40 40 40 47 51 56 70 78 86 90 92 90 81 83 83 69 80 76 82 86 90 85 75 64 55 41 31 31 35 49
74 63 52 52 49 47 42 39 37 36 45 53 59 73 82 90 92 93 93 91 86 76 78 66 74 71 79 82 86 89 79 69 64 52 42 40 44 59
61 52 54 55 51 45 39 36 34 37 47 59 69 80 86 89 93 92 93 90 83 80 85 77 78 73 76 78 81 81 76 66 60 52 42 45 49 67
48 52 56 56 48 44 41 36 32 37 47 59 68 77 86 91 95 95 94 93 80 76 85 87 89 83 82 82 84 80 73 66 57 45 40 43 49 65
48 55 52 55 50 45 42 36 33 39 41 51 72 75 85 91 95 96 95 95 81 73 80 85 93 97 93 94 97 88 72 67 60 46 37 44 48 61
54 55 55 54 50 47 41 37 37 39 44 52 67 78 84 90 94 93 92 89 79 74 78 92 93 97 93 92 94 98 96 85 65 46 37 38 47 56
54 53 54 55 51 46 45 41 42 43 47 56 64 77 81 89 94 94 94 93 87 86 86 93 97 97 92 88 87 97 99 95 85 63 37 35 41 52
58 55 53 54 52 51 50 47 46 45 46 50 63 79 79 83 94 94 91 91 90 93 95 86 88 92 93 93 92 98 99 95 84 75 66 53 40 38
63 60 56 53 57 56 56 54 52 50 49 49 55 71 85 81 85 95 88 92 92 95 97 99 96 93 91 91 94 93 93 91 85 73 63 53 46 46
72 66 59 54 59 62 62 60 57 53 52 48 50 60 84 87 76 91 94 89 93 95 94 95 98 96 91 85 81 83 83 87 82 75 65 52 49 48
68 63 62 57 60 68 68 67 63 58 54 50 49 57 70 90 83 81 96 88 90 93 93 93 93 95 97 94 88 87 92 88 83 77 71 69 61 63
70 64 62 59 61 65 71 74 73 64 59 54 51 51 60 78 89 85 84 91 84 86 94 96 96 93 97 97 97 93 92 91 88 81 77 72 74 72
75 69 65 62 61 65 68 77 79 72 67 61 53 50 54 60 83 89 79 81 84 84 84 89 93 94 95 97 97 96 95 95 93 91 89 89 89 84
83 75 72 68 67 67 70 72 77 79 75 68 58 54 51 55 62 85 85 76 79 82 85 84 85 88 92 95 97 97 95 94 95 96 96 94 96 93
93 82 76 75 71 70 70 72 75 82 81 74 65 58 54 52 54 64 84 84 76 74 84 90 89 89 89 89 89 89 87 86 89 88 87 92 93 92
98 97 88 83 79 76 75 74 73 80 84 81 72 63 58 51 53 55 64 84 84 71 70 89 94 93 91 90 89 88 86 84 85 83 80 78 79 81

GFSNE_prec_cthk_057.txt.gz
RH
48 48 50 45 51 56 63 62 65 54 43 49 51 51 45 45 42 41 38 37 36 37 38 40 40 38 37 34 32 32 40 41 36 29 21 21 24 27
48 47 43 45 47 44 47 56 66 75 58 59 53 43 44 43 41 39 36 34 32 33 30 31 34 37 38 37 36 35 36 40 45 34 26 20 21 24
52 49 42 41 43 52 58 67 71 77 70 49 42 42 40 37 35 35 35 33 33 34 34 37 40 42 45 46 42 39 38 44 42 37 32 26 20 18
36 36 38 44 50 55 65 70 78 71 48 43 37 28 27 29 33 34 35 36 37 42 50 53 55 56 54 54 53 51 45 45 43 38 33 26 20 14
37 39 47 54 58 63 70 67 48 45 42 36 29 28 29 30 34 35 38 42 53 59 61 61 58 58 57 60 59 57 59 53 47 41 34 29 22 16
42 48 55 59 62 68 59 48 44 41 37 34 31 29 33 36 42 46 49 60 65 70 70 70 69 67 65 63 60 62 63 62 57 46 39 30 24 19
54 56 61 68 69 61 48 47 45 42 38 34 30 34 40 46 54 64 71 72 73 77 72 69 69 65 63 64 66 65 69 71 68 63 46 35 27 25
61 63 68 74 61 48 50 49 48 44 36 32 36 43 49 60 70 74 76 77 73 81 76 70 73 63 57 59 65 67 68 73 74 69 61 46 31 32
64 69 71 57 51 53 51 51 46 40 37 36 41 49 58 69 73 77 81 82 82 77 80 70 75 62 63 61 64 67 69 74 81 77 68 58 41 43
63 67 51 53 54 52 51 48 44 40 35 39 45 49 59 67 77 82 85 86 82 80 86 66 63 64 68 68 66 69 73 78 81 79 68 60 47 44
61 57 50 48 53 51 52 48 43 39 37 39 40 49 61 70 80 86 89 89 81 78 75 69 66 67 75 79 86 84 82 83 79 75 66 54 46 41
56 52 51 51 53 53 53 49 43 40 38 39 44 47 58 73 83 90 92 90 80 73 70 69 69 80 79 87 92 93 95 87 75 76 72 54 42 46
55 53 54 52 54 54 55 51 47 44 43 43 43 48 60 69 80 90 94 92 84 81 79 81 84 86 91 87 89 94 96 91 72 69 67 52 40 50
58 59 59 54 55 57 56 55 53 50 48 46 45 45 56 73 77 86 93 93 84 85 85 91 87 91 92 89 92 94 98 99 97 85 62 44 38 50
62 66 65 61 61 56 55 58 59 57 54 50 48 47 51 67 82 78 90 92 84 89 93 95 95 90 92 90 92 92 96 98 97 92 82 58 41 43
70 70 67 68 67 60 56 60 64 64 61 55 51 49 48 59 82 78 86 93 84 88 95 98 98 94 91 91 89 91 94 97 98 88 80 69 63 55
74 76 74 71 66 61 58 60 67 68 66 61 57 52 48 53 70 85 84 91 90 85 91 94 95 95 93 92 90 89 84 84 91 88 78 66 61 56
79 80 76 74 68 63 61 61 67 72 72 70 64 58 51 50 57 84 85 82 90 84 90 94 91 92 95 91 86 89 95 88 91 85 83 73 63 60
91 87 80 76 70 65 64 62 63 70 76 76 73 65 55 50 52 66 87 78 80 85 87 94 93 92 94 94 97 94 95 93 90 87 80 80 73 67
96 94 86 79 75 71 67 67 66 67 74 80 77 70 61 54 50 54 76 84 76 80 81 85 93 94 94 95 97 96 94 95 94 91 90 83 80 75
98 97 94 84 80 76 73 71 70 70 73 80 79 75 66 58 53 49 57 83 80 74 80 86 88 92 94 97 98 97 95 94 96 96 91 90 89 87
98 98 97 95 85 81 77 76 73 72 71 76 82 79 72 64 57 51 52 61 85 75 73 96 92 92 92 94 95 97 94 93 95 96 96 96 94 91
98 98 98 98 98 93 88 83 80 79 78 78 84 84 77 69 61 55 52 53 62 79 69 82 97 96 94 93 94 94 91 92 94 95 92 94 98 99

GFSNE_prec_cthk_063.txt.gz
RH
63 59 58 54 53 52 53 47 57 48 38 40 51 52 56 63 63 62 56 37 37 37 37 36 34 33 33 31 29 28 31 32 35 38 39 35 27 34
58 56 52 44 42 42 43 42 41 45 47 49 56 58 58 61 53 35 32 31 28 26 25 25 24 24 26 28 29 32 34 34 34 38 38 38 34 36
56 52 45 40 38 37 37 39 45 50 54 54 58 59 54 38 34 33 31 28 25 24 25 26 27 30 32 34 37 37 37 40 42 42 44 42 39 39
55 47 38 38 36 37 42 49 54 58 60 59 55 46 38 37 35 33 33 29 30 30 33 37 35 36 37 37 39 43 45 45 44 43 44 41 39 39
47 40 36 35 37 43 50 58 62 66 71 57 45 40 40 38 36 34 31 33 37 42 44 45 46 47 48 49 50 49 49 48 46 44 42 40 36 37
41 36 33 34 41 48 58 63 69 73 58 50 44 43 41 40 37 34 31 37 40 46 51 52 53 55 56 57 58 57 56 54 53 50 47 44 40 39
36 32 32 36 44 54 64 68 72 59 52 50 50 46 43 39 38 34 36 38 44 52 57 60 60 61 65 66 67 65 62 58 55 53 52 50 50 47
32 32 35 42 50 57 62 65 58 54 56 53 50 48 44 41 37 36 40 46 50 61 64 65 63 65 67 64 62 61 60 56 51 51 52 53 55 56
32 36 42 46 51 56 61 62 57 57 54 54 50 49 45 41 40 38 41 50 58 63 67 67 66 63 60 56 55 52 48 48 47 45 44 45 49 59
34 40 47 51 55 58 62 60 57 58 55 54 51 49 47 45 44 42 44 49 58 65 70 70 68 59 54 54 52 46 52 55 58 57 53 51 50 52
38 45 51 55 58 60 59 57 59 55 54 52 52 52 51 50 47 43 42 49 58 68 72 76 69 63 61 62 62 52 57 60 63 67 70 64 58 55
44 47 54 57 62 64 61 60 60 56 53 54 57 56 56 56 51 49 45 49 63 71 77 80 78 75 63 69 71 66 66 65 69 80 82 74 64 62
48 51 56 60 65 69 68 66 63 62 55 57 58 60 61 61 57 55 51 49 62 73 80 87 82 79 87 74 73 75 70 79 95 92 85 68 67 67
51 58 67 71 73 75 75 73 68 67 65 62 59 61 64 65 63 59 55 49 58 74 89 92 85 81 87 82 81 76 73 82 98 94 87 78 75 86
53 60 70 75 79 81 80 81 80 76 72 65 62 61 66 68 69 65 59 48 56 72 86 94 88 85 94 92 87 83 81 86 92 94 96 92 78 72
62 64 69 77 82 86 86 85 86 84 77 69 64 62 66 71 74 68 60 49 50 68 72 90 90 88 91 94 89 89 88 87 86 96 93 92 95 81
67 67 73 79 83 88 90 91 89 87 77 70 66 63 65 72 76 71 63 51 45 62 73 77 90 88 93 94 91 93 95 94 92 94 91 95 94 85
73 68 74 81 86 90 93 98 94 87 77 74 68 65 65 70 77 72 66 54 44 54 76 75 86 82 92 94 94 93 97 96 97 93 90 92 90 84
80 78 74 83 87 92 94 98 94 89 82 77 71 68 68 69 76 75 68 57 48 49 71 73 80 83 93 93 97 96 95 96 94 93 93 91 91 82
87 87 79 85 89 92 95 99 95 89 83 78 76 72 70 71 74 77 70 60 51 47 60 74 95 92 94 97 97 98 95 92 94 93 93 92 89 83
88 87 86 88 91 92 96 99 97 89 86 82 80 77 74 73 77 81 72 63 54 47 51 79 98 99 95 98 98 99 99 96 94 93 93 91 89 82
85 89 90 91 91 94 98 99 99 95 88 85 82 81 79 77 82 82 74 66 57 49 45 61 92 99 98 97 98 99 99 97 96 96 97 93 91 85
87 88 90 92 93 98 99 99 99 98 94 90 88 85 83 81 82 84 77 70 62 54 45 49 74 94 99 98 99 99 98 98 98 98 99 97 92 91

GFSNE_prec_cthk_069.txt.gz
RH
69 63 60 56 50 40 29 27 31 32 28 36 35 32 36 39 42 44 47 47 43 37 32 29 27 25 25 27 32 32 32 37 36 35 37 41 42 41
65 63 60 51 39 30 27 27 30 35 35 40 40 42 45 46 49 51 45 38 34 31 29 27 28 31 32 32 35 35 37 39 37 36 41 44 43 42
64 59 49 38 34 28 25 27 32 37 42 41 43 44 46 51 55 44 40 35 32 29 31 34 36 37 35 39 38 37 36 37 38 38 38 42 44 44
57 45 37 35 29 26 27 32 39 44 45 44 50 47 49 56 47 40 36 34 32 35 37 38 35 32 31 33 37 39 41 41 40 39 39 41 41 43
40 35 31 28 26 28 34 37 43 45 47 47 51 50 52 51 44 42 39 37 38 40 40 35 32 33 36 39 42 45 47 47 44 42 41 41 43 43
26 24 26 26 26 31 38 41 44 48 48 50 52 54 54 48 47 45 44 45 48 45 40 36 36 35 37 42 46 49 49 50 49 48 46 45 43 41
19 22 25 26 29 34 38 46 50 49 50 51 52 53 55 54 53 47 46 49 52 49 45 45 43 41 47 49 50 50 52 52 50 49 47 46 47 47
19 23 26 30 33 37 42 48 52 52 52 52 53 56 57 58 53 51 51 53 54 53 49 46 46 43 53 56 54 51 48 47 43 41 39 40 41 43
22 26 29 34 40 44 46 49 49 51 53 55 57 61 58 59 54 52 53 57 59 55 51 48 48 44 58 58 55 51 49 47 44 41 37 38 42 42
23 29 37 41 45 47 47 47 50 52 55 57 58 61 61 60 55 55 56 59 61 61 57 52 51 43 62 59 61 63 61 57 51 48 40 38 41 43
30 35 40 40 42 46 46 47 53 56 61 62 63 66 66 64 59 59 59 65 63 67 62 61 56 42 64 63 66 68 67 64 59 52 47 48 55 57
35 34 35 36 39 47 51 55 58 69 72 72 71 73 72 68 65 65 65 62 65 67 68 64 57 50 59 75 74 73 68 66 62 58 57 62 69 65
40 36 31 40 45 52 60 62 68 74 76 78 79 82 78 78 76 72 68 64 64 69 70 65 59 52 62 78 77 78 75 74 70 64 62 68 70 71
40 41 50 48 59 64 70 72 76 79 75 79 83 88 90 88 85 78 71 65 65 68 71 66 60 52 60 75 80 79 79 81 76 72 73 75 74 73
28 32 50 55 70 76 81 82 84 84 82 80 84 91 93 96 89 81 72 66 65 66 67 63 59 51 64 75 81 77 76 83 79 79 79 81 78 78
29 31 48 49 76 88 97 90 86 88 85 81 85 94 96 98 93 85 73 69 66 70 69 62 52 48 64 78 84 81 84 82 82 87 88 88 88 91
35 35 51 56 76 93 98 92 90 86 84 84 88 94 96 99 94 85 74 69 66 69 76 69 55 46 57 71 80 84 89 86 86 92 94 94 95 93
44 51 66 70 89 97 98 97 93 88 88 88 91 94 98 99 93 84 76 71 69 71 76 69 59 53 68 90 85 89 92 86 91 96 97 98 96 96
64 72 77 88 89 90 90 92 90 89 90 90 93 96 99 98 91 84 78 72 70 74 78 67 59 57 79 96 93 90 91 89 91 93 95 96 99 98
64 68 71 76 81 82 86 88 88 89 89 94 95 98 99 95 91 84 82 75 73 80 77 67 59 60 79 98 96 96 95 96 95 94 95 94 97 96
63 67 74 75 73 76 81 87 89 87 91 94 96 99 98 95 91 88 84 78 75 82 79 68 57 55 75 97 98 97 98 98 97 95 94 96 98 96
60 67 74 78 79 82 89 87 86 90 93 94 98 99 99 97 93 90 86 82 80 84 80 66 56 53 66 95 99 99 99 99 98 96 96 98 96 95
51 62 74 77 83 88 88 89 89 92 93 96 99 99 99 97 96 93 90 83 81 83 77 68 61 58 57 78 98 99 99 99 99 99 98 98 97 93

GFSNE_prec_cthk_075.txt.gz
RH
74 67 63 69 66 61 61 50 44 38 33 30 32 35 40 47 49 44 44 51 48 39 37 29 21 20 22 25 25 25 27 31 31 33 39 38 39 44
78 67 69 69 64 62 51 49 44 39 35 33 34 37 42 47 52 56 57 54 48 45 39 30 24 21 23 23 25 26 28 35 38 40 44 44 48 51
76 70 72 69 66 50 43 43 40 38 38 34 38 40 44 49 59 63 63 59 53 54 43 33 29 27 27 27 29 31 32 31 30 35 36 42 42 45
76 74 68 63 50 38 36 38 37 38 44 41 37 42 53 58 57 65 58 54 51 53 48 39 35 33 34 31 34 36 34 31 30 32 38 39 44 44
71 66 57 44 36 34 34 37 38 40 42 47 45 50 54 48 51 59 57 55 55 52 51 45 41 40 38 39 41 41 38 37 35 37 39 41 45 45
58 51 43 35 33 32 31 36 41 44 45 46 45 50 45 39 56 64 67 71 67 64 60 55 53 52 50 48 48 47 45 45 42 45 45 46 48 47
45 41 35 33 33 31 32 31 34 35 37 42 42 49 44 59 69 76 79 79 76 73 67 67 66 62 60 56 58 56 51 48 45 48 48 49 49 47
35 32 32 33 35 38 40 41 41 40 39 44 43 44 52 74 79 78 79 82 73 77 75 74 72 64 64 65 65 59 54 48 43 49 48 45 43 41
30 29 31 31 32 37 40 41 47 52 55 56 49 43 52 67 75 75 75 78 76 78 81 71 67 67 69 67 68 62 56 47 47 56 57 54 52 49
32 32 34 33 34 41 42 42 46 48 64 64 51 49 58 65 75 79 78 77 73 73 79 72 76 71 71 70 67 64 59 50 52 61 60 58 55 51
30 27 26 28 28 31 33 37 36 30 54 67 56 63 67 73 77 81 80 80 73 79 82 85 80 76 71 69 73 69 62 59 59 68 66 65 61 54
23 24 23 22 21 20 25 30 36 42 50 72 72 62 74 79 81 84 82 79 80 82 87 88 86 80 71 71 76 65 61 57 64 75 73 71 70 61
20 21 24 24 24 24 25 27 28 34 39 53 77 80 88 91 87 81 79 81 82 89 90 89 85 79 73 68 69 65 60 57 65 83 78 75 77 73
24 26 28 26 25 27 28 28 31 31 48 64 63 85 95 98 95 90 86 81 86 92 95 92 83 75 70 68 69 63 60 59 71 81 76 79 79 78
24 26 26 25 28 33 32 34 34 37 52 54 70 84 92 98 96 92 86 86 90 94 98 92 80 72 68 69 69 62 58 65 79 84 82 81 73 72
28 27 28 34 45 47 46 51 49 50 59 68 81 86 90 93 92 90 86 91 93 96 97 87 76 71 69 72 69 61 59 73 83 81 83 85 76 75
30 33 40 40 40 41 48 60 63 64 73 77 82 82 85 85 85 87 89 93 95 99 99 89 83 75 72 76 67 64 67 82 85 89 91 79 76 89
34 45 40 36 38 42 47 53 68 76 80 84 85 85 83 84 84 86 89 94 97 99 98 88 82 78 80 77 72 68 75 88 88 88 83 78 79 83
41 46 40 35 37 39 50 56 62 69 86 86 85 83 88 87 88 89 92 96 98 99 92 87 83 81 84 75 72 72 80 92 89 87 83 80 78 77
45 46 46 39 33 34 42 53 66 66 76 84 89 90 88 89 89 90 94 97 99 99 93 87 84 85 85 76 67 70 83 93 93 91 89 83 79 81
48 47 45 39 35 34 34 42 60 70 78 83 88 87 91 90 91 93 97 98 99 99 93 88 85 90 80 67 58 69 84 92 93 94 91 87 85 88
46 43 42 40 38 38 39 40 44 69 80 89 90 92 94 93 95 97 98 99 99 98 92 87 88 90 79 72 70 69 80 95 93 93 91 87 86 89
43 42 41 39 40 42 43 46 49 54 77 90 92 97 99 95 98 98 99 99 99 99 94 87 89 91 79 75 74 68 75 91 98 96 93 92 87 89

GFSNE_prec_cthk_078.txt.gz
RH
94 90 88 85 80 78 72 60 52 42 36 34 29 27 25 28 33 34 36 40 40 41 40 39 34 35 35 24 21 20 20 24 31 31 34 42 42 40
93 93 88 84 79 73 64 53 45 40 36 32 30 30 30 33 37 41 50 52 46 45 48 46 40 38 39 30 27 23 24 23 28 33 38 41 46 45
94 90 89 81 71 67 52 43 40 38 37 32 32 32 34 36 37 39 45 49 53 43 60 61 45 44 45 34 33 31 30 31 32 33 35 39 40 43
90 81 79 73 63 51 47 42 38 35 40 39 39 41 41 44 47 48 43 45 48 43 66 57 49 49 47 41 42 40 40 40 41 41 38 41 38 44
76 71 66 58 48 46 39 37 36 38 44 44 40 39 41 46 48 45 46 50 47 62 67 64 58 53 58 51 53 51 48 50 52 49 45 41 38 44
71 60 51 46 42 34 33 34 35 35 37 38 39 40 46 43 42 42 44 52 67 73 71 73 70 66 64 61 64 58 56 59 58 55 50 44 41 44
53 49 46 39 35 37 36 34 33 32 34 38 38 40 45 42 47 41 51 70 74 78 82 74 71 68 71 71 66 61 63 66 62 59 54 43 44 47
46 42 35 33 34 33 34 33 34 38 42 45 48 55 54 56 58 48 56 77 79 76 79 73 73 70 69 68 64 68 69 65 62 58 50 44 50 53
42 37 37 37 35 35 36 36 35 38 44 48 52 52 55 55 64 49 54 72 70 72 75 67 72 67 69 66 72 70 69 66 65 62 50 50 55 58
41 42 40 36 35 34 31 30 32 34 37 46 46 46 54 48 71 61 62 68 70 72 78 68 69 64 73 78 77 70 64 66 69 64 55 54 59 60
42 38 33 31 29 27 28 27 25 23 21 25 30 37 44 44 75 70 71 79 72 74 75 74 68 75 82 80 75 71 68 67 69 64 59 61 65 64
37 35 32 29 27 28 32 33 32 29 32 26 24 37 42 57 76 67 82 83 84 74 77 76 74 83 81 81 72 69 69 63 64 60 58 66 74 71
38 35 33 30 30 33 35 38 39 41 36 34 30 26 27 43 62 69 83 90 90 84 85 81 79 86 86 78 69 65 63 62 62 61 56 68 79 79
39 36 33 32 31 32 35 40 47 47 43 38 31 36 49 60 57 78 84 85 89 83 82 85 85 92 93 81 69 62 64 63 59 57 60 74 81 85
38 36 34 34 35 41 47 47 47 48 50 50 45 42 57 67 77 83 87 90 87 80 79 90 93 96 94 79 68 64 62 62 58 59 69 83 84 82
40 39 38 40 44 43 40 38 41 45 57 59 58 60 66 73 82 88 89 88 84 74 86 93 96 98 89 78 73 67 69 66 63 65 74 82 83 85
44 42 42 49 43 37 31 35 41 50 53 72 71 71 76 81 83 87 86 84 80 81 87 94 97 97 90 82 77 73 71 72 70 78 85 87 84 76
46 46 51 49 41 35 35 36 39 45 57 64 72 87 88 88 87 88 88 87 84 87 90 96 97 96 88 80 81 81 76 75 76 85 86 83 76 80
54 52 50 45 43 41 39 38 34 37 46 59 68 90 96 87 87 89 89 89 85 89 93 98 96 94 86 80 84 79 76 76 79 87 87 86 79 78
53 50 50 48 46 44 41 38 37 34 35 45 64 74 85 89 89 94 99 90 89 92 96 98 95 91 87 85 85 76 72 72 83 91 91 89 83 81
49 50 49 49 46 43 42 41 39 38 38 40 55 71 80 85 91 94 95 92 93 96 98 98 96 92 89 89 83 71 68 77 84 93 92 90 85 83
53 50 48 45 44 44 42 40 42 44 45 48 50 71 82 90 94 96 98 98 97 97 97 98 96 92 89 89 77 73 74 77 84 91 94 92 88 83
50 46 45 45 44 43 43 43 44 45 50 53 53 61 85 91 98 98 99 99 99 98 98 98 95 93 89 89 78 77 74 76 83 94 96 98 95 90

GFSNE_prec_cthk_081.txt.gz
RH
94 95 96 94 92 92 88 83 76 62 44 35 30 27 27 26 26 26 28 30 32 35 38 39 38 45 42 38 44 42 31 23 20 26 28 30 36 41
98 97 95 96 90 80 82 72 58 47 41 34 31 32 34 37 37 36 38 39 39 39 41 44 47 50 51 49 52 41 36 29 26 26 30 32 36 43
92 96 96 85 76 66 64 58 49 48 40 36 37 36 38 42 43 44 48 54 56 55 55 54 53 56 55 57 50 47 47 39 34 35 36 39 43 45
71 77 72 71 68 67 59 56 52 42 43 42 41 40 43 47 47 47 48 53 57 59 60 54 51 64 63 60 55 53 58 49 45 46 46 46 45 44
69 69 72 70 66 62 57 48 41 44 45 41 39 40 42 47 48 49 47 46 46 44 43 44 55 69 68 63 62 58 66 60 52 56 57 55 53 51
67 70 71 68 61 50 43 39 42 43 41 40 38 36 36 36 41 43 40 51 45 38 36 52 71 78 74 75 70 67 64 61 59 62 60 61 57 52
70 71 69 60 48 43 42 45 45 41 40 39 40 40 39 40 44 47 57 53 45 43 38 59 77 80 74 70 69 67 68 65 64 64 67 65 61 54
75 70 59 46 42 41 42 41 42 43 42 43 42 45 43 45 50 54 56 65 58 50 49 54 69 68 66 66 69 68 70 66 65 66 68 63 62 53
68 57 50 45 44 44 44 44 43 42 42 44 44 44 45 45 48 48 46 58 54 62 66 62 73 66 69 66 63 66 74 73 71 69 69 69 64 57
58 54 52 51 49 46 41 38 35 34 33 32 32 31 32 32 34 40 38 52 53 68 68 66 69 65 64 63 65 77 78 73 73 70 69 68 65 61
60 56 53 49 46 43 39 35 33 33 33 36 39 39 38 36 36 40 48 52 72 68 76 78 69 64 62 62 70 80 80 75 72 68 68 68 68 64
56 50 48 48 46 44 41 38 36 36 38 39 42 41 40 33 30 31 38 57 77 70 76 81 78 71 62 62 73 80 79 75 69 65 63 63 65 62
53 50 49 48 47 45 43 43 46 45 46 48 45 41 36 33 31 35 49 48 59 68 83 86 82 74 68 64 79 87 78 72 63 61 62 62 62 61
57 52 51 50 47 46 47 51 52 52 51 48 45 43 42 45 41 45 52 60 72 78 89 92 84 78 71 74 83 86 74 67 60 59 63 62 62 66
57 54 52 50 49 50 50 49 47 45 43 41 41 47 54 54 54 52 61 72 80 84 90 93 84 77 81 85 89 82 73 66 65 67 67 64 62 75
57 56 54 52 54 57 54 47 41 38 37 42 48 51 56 62 64 69 73 79 85 86 90 83 78 83 87 92 92 83 76 69 70 74 71 68 79 86
60 59 58 59 61 58 51 43 34 32 34 38 44 55 55 72 68 80 83 87 90 84 80 80 80 85 91 95 95 84 78 73 76 75 74 77 83 86
63 64 66 66 61 52 44 37 36 35 35 34 35 40 55 62 73 93 91 90 88 83 79 79 84 88 92 93 92 83 79 78 78 77 74 82 80 81
70 71 67 60 52 44 41 41 39 37 36 35 34 33 38 59 79 92 96 94 91 86 86 84 87 93 94 94 87 84 83 81 78 75 80 87 86 81
70 63 57 50 48 47 45 42 39 38 37 37 36 36 37 42 60 91 97 93 89 99 94 86 89 96 93 91 88 88 86 77 74 75 84 89 88 83
62 55 52 52 50 47 44 41 38 37 38 38 40 42 44 45 56 85 97 94 87 92 89 86 95 96 95 95 87 90 81 73 75 79 83 89 88 85
58 56 56 54 48 44 41 40 40 40 41 41 41 48 52 53 61 75 84 91 93 97 97 96 98 98 98 96 90 90 77 77 76 79 84 92 94 88
54 49 44 41 40 42 42 43 44 45 47 49 50 48 51 55 59 81 90 94 99 97 99 99 98 98 97 96 93 89 81 80 79 81 84 95 96 94